Wetterdaten: aktuell Sonntag, 19.05.2019 20:54
Datum Zeit Temp. I. Temp. 2m Temp. 5cm Feuchte I. Feuchte 2m Luftdruck Regen Wind Richtung Richtung Taupunkt Windchill Windben
19.05.2019 20:54 16,4 C 15,1 C 12,0 C 60 % 71 % 1002,2 hPa 0,0 l/m 6,9 km/h (2 Bft) N-NO 22 9,9 C 15,1 C 9,5 km/h (2 Bft)
19.05.2019 20:52 16,4 C 15,1 C 11,9 C 60 % 71 % 1002,4 hPa 0,0 l/m 6,9 km/h (2 Bft) N 360 9,9 C 15,1 C 10,6 km/h (2 Bft)
19.05.2019 20:50 16,4 C 15,0 C 11,8 C 60 % 71 % 1002,4 hPa 0,0 l/m 6,8 km/h (2 Bft) N 360 9,8 C 15,0 C 9,8 km/h (2 Bft)
19.05.2019 20:48 16,4 C 14,8 C 11,8 C 60 % 71 % 1002,4 hPa 0,0 l/m 6,8 km/h (2 Bft) N 360 9,6 C 14,8 C 8,1 km/h (2 Bft)
19.05.2019 20:46 16,4 C 14,9 C 11,9 C 60 % 70 % 1002,4 hPa 0,0 l/m 6,9 km/h (2 Bft) N-NO 22 9,5 C 14,9 C 7,3 km/h (2 Bft)
19.05.2019 20:44 16,4 C 15,1 C 12,2 C 60 % 70 % 1002,4 hPa 0,0 l/m 6,9 km/h (2 Bft) N-NO 22 9,7 C 15,1 C 7,7 km/h (2 Bft)
19.05.2019 20:42 16,4 C 15,3 C 12,3 C 60 % 69 % 1002,4 hPa 0,0 l/m 6,8 km/h (2 Bft) N-NW 337 9,6 C 15,3 C 8,5 km/h (2 Bft)
19.05.2019 20:40 16,4 C 15,3 C 12,2 C 60 % 69 % 1002,4 hPa 0,0 l/m 6,1 km/h (2 Bft) N 360 9,6 C 15,3 C 11,2 km/h (2 Bft)
19.05.2019 20:38 16,4 C 15,4 C 12,1 C 60 % 68 % 1002,4 hPa 0,0 l/m 5,8 km/h (2 Bft) N 360 9,5 C 15,4 C 8,9 km/h (2 Bft)
19.05.2019 20:36 16,4 C 15,5 C 11,9 C 60 % 66 % 1002,4 hPa 0,0 l/m 5,5 km/h (1 Bft) N-NW 337 9,2 C 15,5 C 8,9 km/h (2 Bft)
19.05.2019 20:34 16,4 C 15,5 C 11,8 C 60 % 66 % 1002,4 hPa 0,0 l/m 5,5 km/h (1 Bft) N 360 9,2 C 15,5 C 8,3 km/h (2 Bft)
19.05.2019 20:32 16,4 C 15,9 C 12,0 C 60 % 63 % 1002,2 hPa 0,0 l/m 5,6 km/h (1 Bft) N 360 8,9 C 15,9 C 5,0 km/h (1 Bft)
19.05.2019 20:30 16,5 C 16,0 C 12,3 C 60 % 63 % 1002,2 hPa 0,0 l/m 6,0 km/h (2 Bft) N-NO 22 9,0 C 16,0 C 5,0 km/h (1 Bft)
19.05.2019 20:28 16,5 C 16,1 C 12,3 C 60 % 62 % 1002,2 hPa 0,0 l/m 6,3 km/h (2 Bft) N-NO 22 8,8 C 16,1 C 8,5 km/h (2 Bft)
19.05.2019 20:26 16,5 C 16,3 C 12,6 C 59 % 62 % 1002,2 hPa 0,0 l/m 6,3 km/h (2 Bft) NO 45 9,0 C 16,3 C 8,9 km/h (2 Bft)
19.05.2019 20:24 16,5 C 16,4 C 12,8 C 59 % 62 % 1002,2 hPa 0,0 l/m 6,1 km/h (2 Bft) NO 45 9,1 C 16,4 C 7,0 km/h (2 Bft)
19.05.2019 20:22 16,5 C 16,5 C 13,0 C 59 % 61 % 1002,2 hPa 0,0 l/m 5,8 km/h (2 Bft) O-NO 67 9,0 C 16,5 C 7,9 km/h (2 Bft)
19.05.2019 20:20 16,5 C 16,6 C 13,2 C 59 % 61 % 1002,2 hPa 0,0 l/m 5,6 km/h (1 Bft) NO 45 9,0 C 16,6 C 7,3 km/h (2 Bft)
19.05.2019 20:18 16,5 C 16,5 C 13,1 C 59 % 61 % 1002,2 hPa 0,0 l/m 5,5 km/h (1 Bft) O-NO 67 9,0 C 16,5 C 10,4 km/h (2 Bft)
19.05.2019 20:16 16,5 C 16,6 C 13,1 C 59 % 61 % 1002,2 hPa 0,0 l/m 5,3 km/h (1 Bft) O-NO 67 9,0 C 16,6 C 5,6 km/h (1 Bft)
19.05.2019 20:14 16,5 C 16,5 C 13,1 C 59 % 61 % 1002,2 hPa 0,0 l/m 5,1 km/h (1 Bft) NO 45 9,0 C 16,5 C 7,1 km/h (2 Bft)
19.05.2019 20:12 16,6 C 16,6 C 13,4 C 59 % 60 % 1002,4 hPa 0,0 l/m 5,3 km/h (1 Bft) NO 45 8,8 C 16,6 C 6,0 km/h (2 Bft)
19.05.2019 20:10 16,6 C 16,7 C 13,5 C 59 % 60 % 1002,4 hPa 0,0 l/m 5,5 km/h (1 Bft) O-NO 67 8,9 C 16,7 C 9,3 km/h (2 Bft)
19.05.2019 20:08 16,5 C 16,5 C 13,5 C 59 % 61 % 1002,4 hPa 0,0 l/m 5,5 km/h (1 Bft) NO 45 9,0 C 16,5 C 9,7 km/h (2 Bft)
19.05.2019 20:06 16,5 C 16,6 C 13,6 C 59 % 60 % 1002,4 hPa 0,0 l/m 5,1 km/h (1 Bft) O-NO 67 8,8 C 16,6 C 8,3 km/h (2 Bft)
19.05.2019 20:04 16,6 C 16,8 C 13,7 C 59 % 60 % 1002,4 hPa 0,0 l/m 5,1 km/h (1 Bft) NO 45 9,0 C 16,8 C 5,4 km/h (1 Bft)
19.05.2019 20:02 16,6 C 16,8 C 13,9 C 59 % 60 % 1002,4 hPa 0,0 l/m 5,1 km/h (1 Bft) O-NO 67 9,0 C 16,8 C 11,4 km/h (2 Bft)
19.05.2019 20:00 16,6 C 16,9 C 14,1 C 59 % 60 % 1002,4 hPa 0,0 l/m 5,1 km/h (1 Bft) O-NO 67 9,1 C 16,9 C 4,1 km/h (1 Bft)
19.05.2019 19:58 16,6 C 16,9 C 14,1 C 59 % 59 % 1002,4 hPa 0,0 l/m 5,3 km/h (1 Bft) O-NO 67 8,8 C 16,9 C 8,7 km/h (2 Bft)
19.05.2019 19:56 16,6 C 17,0 C 14,2 C 59 % 59 % 1002,4 hPa 0,0 l/m 5,1 km/h (1 Bft) O-NO 67 8,9 C 17,0 C 5,0 km/h (1 Bft)
19.05.2019 19:54 16,6 C 17,0 C 14,3 C 59 % 59 % 1002,4 hPa 0,0 l/m 5,3 km/h (1 Bft) O-NO 67 8,9 C 17,0 C 6,6 km/h (2 Bft)
19.05.2019 19:52 16,6 C 17,0 C 14,4 C 59 % 59 % 1002,5 hPa 0,0 l/m 5,0 km/h (1 Bft) NO 45 8,9 C 17,0 C 6,2 km/h (2 Bft)
19.05.2019 19:50 16,6 C 17,1 C 14,6 C 59 % 59 % 1002,5 hPa 0,0 l/m 5,0 km/h (1 Bft) NO 45 9,0 C 17,1 C 7,0 km/h (2 Bft)
19.05.2019 19:48 16,6 C 17,1 C 14,8 C 59 % 59 % 1002,5 hPa 0,0 l/m 5,5 km/h (1 Bft) O-NO 67 9,0 C 17,1 C 8,5 km/h (2 Bft)
19.05.2019 19:46 16,6 C 17,2 C 14,9 C 59 % 59 % 1002,5 hPa 0,0 l/m 5,5 km/h (1 Bft) NO 45 9,1 C 17,2 C 7,1 km/h (2 Bft)
19.05.2019 19:44 16,6 C 17,3 C 15,1 C 59 % 59 % 1002,5 hPa 0,0 l/m 5,6 km/h (1 Bft) NO 45 9,2 C 17,3 C 6,2 km/h (2 Bft)
19.05.2019 19:42 16,6 C 17,4 C 15,4 C 59 % 59 % 1002,5 hPa 0,0 l/m 6,1 km/h (2 Bft) O-NO 67 9,3 C 17,4 C 5,8 km/h (2 Bft)
19.05.2019 19:40 16,6 C 17,5 C 15,6 C 59 % 58 % 1002,5 hPa 0,0 l/m 6,0 km/h (2 Bft) NO 45 9,1 C 17,5 C 5,6 km/h (1 Bft)
19.05.2019 19:38 16,6 C 17,4 C 15,8 C 59 % 58 % 1002,5 hPa 0,0 l/m 6,3 km/h (2 Bft) NO 45 9,1 C 17,4 C 12,0 km/h (2 Bft)
19.05.2019 19:36 16,6 C 17,5 C 16,0 C 59 % 59 % 1002,5 hPa 0,0 l/m 6,0 km/h (2 Bft) O-NO 67 9,4 C 17,5 C 7,9 km/h (2 Bft)
19.05.2019 19:34 16,6 C 17,5 C 16,1 C 59 % 59 % 1002,5 hPa 0,0 l/m 6,0 km/h (2 Bft) O 90 9,4 C 17,5 C 9,8 km/h (2 Bft)
19.05.2019 19:32 16,7 C 17,5 C 16,2 C 59 % 59 % 1002,3 hPa 0,0 l/m 5,5 km/h (1 Bft) O-NO 67 9,4 C 17,5 C 6,2 km/h (2 Bft)
19.05.2019 19:30 16,7 C 17,6 C 16,5 C 59 % 58 % 1002,3 hPa 0,0 l/m 6,0 km/h (2 Bft) O-NO 67 9,2 C 17,6 C 7,0 km/h (2 Bft)
19.05.2019 19:28 16,7 C 17,7 C 16,6 C 59 % 57 % 1002,3 hPa 0,0 l/m 5,8 km/h (2 Bft) O 90 9,1 C 17,7 C 10,4 km/h (2 Bft)
19.05.2019 19:26 16,7 C 17,8 C 16,9 C 59 % 58 % 1002,3 hPa 0,0 l/m 5,6 km/h (1 Bft) NO 45 9,4 C 17,8 C 10,6 km/h (2 Bft)
19.05.2019 19:24 16,7 C 17,8 C 17,1 C 59 % 58 % 1002,3 hPa 0,0 l/m 5,5 km/h (1 Bft) SO 135 9,4 C 17,8 C 6,6 km/h (2 Bft)
19.05.2019 19:22 16,7 C 17,9 C 17,3 C 59 % 57 % 1002,3 hPa 0,0 l/m 5,3 km/h (1 Bft) O 90 9,3 C 17,9 C 5,8 km/h (2 Bft)
19.05.2019 19:20 16,7 C 17,9 C 17,7 C 59 % 58 % 1002,3 hPa 0,0 l/m 4,8 km/h (1 Bft) O-NO 67 9,5 C 17,9 C 9,5 km/h (2 Bft)
19.05.2019 19:18 16,7 C 18,0 C 17,9 C 59 % 57 % 1002,3 hPa 0,0 l/m 4,3 km/h (1 Bft) O 90 9,4 C 18,0 C 5,6 km/h (1 Bft)
19.05.2019 19:16 16,7 C 18,0 C 17,9 C 59 % 58 % 1002,3 hPa 0,0 l/m 4,3 km/h (1 Bft) O-NO 67 9,6 C 18,0 C 6,2 km/h (2 Bft)
19.05.2019 19:14 16,7 C 18,1 C 18,1 C 59 % 57 % 1002,3 hPa 0,0 l/m 4,2 km/h (1 Bft) O 90 9,4 C 18,1 C 7,3 km/h (2 Bft)
19.05.2019 19:12 16,7 C 18,1 C 18,1 C 59 % 58 % 1002,2 hPa 0,0 l/m 4,3 km/h (1 Bft) O-NO 67 9,7 C 18,1 C 6,0 km/h (2 Bft)
19.05.2019 19:10 16,7 C 18,1 C 18,1 C 59 % 57 % 1002,2 hPa 0,0 l/m 4,7 km/h (1 Bft) O 90 9,4 C 18,1 C 5,8 km/h (2 Bft)
19.05.2019 19:08 16,7 C 18,0 C 18,1 C 59 % 57 % 1002,2 hPa 0,0 l/m 5,3 km/h (1 Bft) S 180 9,4 C 18,0 C 5,4 km/h (1 Bft)
19.05.2019 19:06 16,7 C 18,1 C 18,2 C 59 % 58 % 1002,2 hPa 0,0 l/m 6,3 km/h (2 Bft) O-NO 67 9,7 C 18,1 C 5,8 km/h (2 Bft)
19.05.2019 19:04 16,7 C 18,0 C 18,2 C 59 % 57 % 1002,2 hPa 0,0 l/m 6,8 km/h (2 Bft) O-NO 67 9,4 C 18,0 C 7,3 km/h (2 Bft)
19.05.2019 19:02 16,7 C 18,2 C 18,6 C 59 % 57 % 1002,2 hPa 0,0 l/m 6,9 km/h (2 Bft) SO 135 9,5 C 18,2 C 11,0 km/h (2 Bft)
19.05.2019 19:00 16,7 C 18,1 C 18,9 C 59 % 58 % 1002,2 hPa 0,0 l/m 7,4 km/h (2 Bft) NO 45 9,7 C 18,1 C 5,8 km/h (2 Bft)
19.05.2019 18:58 16,7 C 18,2 C 18,9 C 59 % 56 % 1002,2 hPa 0,0 l/m 7,2 km/h (2 Bft) O-NO 67 9,3 C 18,2 C 9,3 km/h (2 Bft)
19.05.2019 18:56 16,8 C 18,3 C 19,0 C 59 % 55 % 1002,2 hPa 0,0 l/m 7,2 km/h (2 Bft) O-NO 67 9,1 C 18,3 C 10,4 km/h (2 Bft)
19.05.2019 18:54 16,7 C 18,3 C 19,1 C 59 % 55 % 1002,2 hPa 0,0 l/m 7,1 km/h (2 Bft) O 90 9,1 C 18,3 C 10,4 km/h (2 Bft)
19.05.2019 18:52 16,8 C 18,3 C 19,0 C 59 % 54 % 1002,3 hPa 0,0 l/m 7,2 km/h (2 Bft) O-NO 67 8,8 C 18,3 C 9,1 km/h (2 Bft)
19.05.2019 18:50 16,8 C 18,4 C 19,1 C 59 % 55 % 1002,3 hPa 0,0 l/m 7,1 km/h (2 Bft) O-SO 112 9,2 C 18,4 C 11,6 km/h (2 Bft)
19.05.2019 18:48 16,8 C 18,4 C 19,2 C 59 % 54 % 1002,3 hPa 0,0 l/m 7,2 km/h (2 Bft) O-NO 67 8,9 C 18,4 C 9,1 km/h (2 Bft)
19.05.2019 18:46 16,8 C 18,4 C 19,5 C 59 % 55 % 1002,3 hPa 0,0 l/m 7,9 km/h (2 Bft) O-SO 112 9,2 C 18,4 C 4,2 km/h (1 Bft)
19.05.2019 18:44 16,8 C 18,5 C 19,7 C 59 % 54 % 1002,3 hPa 0,0 l/m 8,2 km/h (2 Bft) O-SO 112 9,0 C 18,5 C 14,1 km/h (3 Bft)
19.05.2019 18:42 16,8 C 18,5 C 19,9 C 59 % 54 % 1002,3 hPa 0,0 l/m 7,6 km/h (2 Bft) O 90 9,0 C 18,5 C 9,1 km/h (2 Bft)
19.05.2019 18:40 16,8 C 18,5 C 20,2 C 59 % 53 % 1002,3 hPa 0,0 l/m 7,4 km/h (2 Bft) O-SO 112 8,7 C 18,5 C 10,2 km/h (2 Bft)
19.05.2019 18:38 16,8 C 18,6 C 20,0 C 59 % 53 % 1002,3 hPa 0,0 l/m 7,2 km/h (2 Bft) O-SO 112 8,8 C 18,6 C 16,8 km/h (3 Bft)
19.05.2019 18:36 16,8 C 18,6 C 20,2 C 59 % 52 % 1002,3 hPa 0,0 l/m 6,8 km/h (2 Bft) NO 45 8,5 C 18,6 C 14,1 km/h (3 Bft)
19.05.2019 18:34 16,8 C 18,7 C 20,1 C 59 % 53 % 1002,3 hPa 0,0 l/m 6,4 km/h (2 Bft) O-NO 67 8,9 C 18,7 C 11,2 km/h (2 Bft)
19.05.2019 18:32 16,8 C 18,6 C 19,7 C 59 % 53 % 1002,5 hPa 0,0 l/m 7,1 km/h (2 Bft) O-NO 67 8,8 C 18,6 C 6,0 km/h (2 Bft)
19.05.2019 18:30 16,8 C 18,7 C 19,9 C 59 % 53 % 1002,5 hPa 0,0 l/m 7,4 km/h (2 Bft) O-SO 112 8,9 C 18,7 C 9,1 km/h (2 Bft)
19.05.2019 18:28 16,8 C 18,8 C 20,1 C 59 % 52 % 1002,5 hPa 0,0 l/m 7,9 km/h (2 Bft) O 90 8,7 C 18,8 C 5,8 km/h (2 Bft)
19.05.2019 18:26 16,8 C 18,8 C 19,8 C 59 % 52 % 1002,5 hPa 0,0 l/m 7,6 km/h (2 Bft) O 90 8,7 C 18,8 C 13,3 km/h (3 Bft)
19.05.2019 18:24 16,8 C 18,8 C 19,1 C 59 % 52 % 1002,5 hPa 0,0 l/m 7,6 km/h (2 Bft) O-SO 112 8,7 C 18,8 C 7,1 km/h (2 Bft)
19.05.2019 18:22 16,8 C 18,8 C 19,0 C 59 % 52 % 1002,5 hPa 0,0 l/m 7,9 km/h (2 Bft) NO 45 8,7 C 18,8 C 11,8 km/h (2 Bft)
19.05.2019 18:20 16,8 C 18,8 C 18,8 C 59 % 53 % 1002,5 hPa 0,0 l/m 7,6 km/h (2 Bft) O-NO 67 9,0 C 18,8 C 15,3 km/h (3 Bft)
19.05.2019 18:18 16,8 C 18,9 C 18,5 C 59 % 53 % 1002,5 hPa 0,0 l/m 7,6 km/h (2 Bft) SO 135 9,1 C 18,9 C 10,0 km/h (2 Bft)
19.05.2019 18:16 16,8 C 18,8 C 18,4 C 59 % 53 % 1002,5 hPa 0,0 l/m 8,4 km/h (2 Bft) O-SO 112 9,0 C 18,8 C 6,2 km/h (2 Bft)
19.05.2019 18:14 16,8 C 18,7 C 18,5 C 59 % 53 % 1002,5 hPa 0,0 l/m 8,9 km/h (2 Bft) O 90 8,9 C 18,7 C 9,5 km/h (2 Bft)
19.05.2019 18:12 16,8 C 18,7 C 18,5 C 59 % 51 % 1002,8 hPa 0,0 l/m 9,0 km/h (2 Bft) O-NO 67 8,4 C 18,7 C 16,2 km/h (3 Bft)
19.05.2019 18:10 16,8 C 18,7 C 18,7 C 59 % 52 % 1002,8 hPa 0,0 l/m 9,7 km/h (2 Bft) O 90 8,6 C 18,7 C 12,2 km/h (2 Bft)
19.05.2019 18:08 16,8 C 18,8 C 18,9 C 59 % 52 % 1002,8 hPa 0,0 l/m 10,1 km/h (2 Bft) O-SO 112 8,7 C 18,8 C 12,0 km/h (2 Bft)
19.05.2019 18:06 16,9 C 18,7 C 19,4 C 59 % 53 % 1002,8 hPa 0,0 l/m 10,3 km/h (2 Bft) SO 135 8,9 C 18,7 C 22,2 km/h (4 Bft)
19.05.2019 18:04 16,9 C 18,7 C 19,3 C 59 % 52 % 1002,8 hPa 0,0 l/m 10,0 km/h (2 Bft) O-NO 67 8,6 C 18,7 C 11,6 km/h (2 Bft)
19.05.2019 18:02 16,9 C 18,7 C 19,3 C 59 % 52 % 1002,8 hPa 0,0 l/m 10,1 km/h (2 Bft) O 90 8,6 C 18,7 C 17,4 km/h (3 Bft)
19.05.2019 18:00 16,9 C 18,7 C 19,4 C 58 % 51 % 1002,8 hPa 0,0 l/m 10,1 km/h (2 Bft) NO 45 8,4 C 18,7 C 12,7 km/h (3 Bft)
19.05.2019 17:58 16,9 C 18,8 C 19,4 C 58 % 53 % 1002,8 hPa 0,0 l/m 9,0 km/h (2 Bft) O-SO 112 9,0 C 18,8 C 10,0 km/h (2 Bft)
19.05.2019 17:56 16,9 C 18,7 C 19,5 C 58 % 52 % 1002,8 hPa 0,0 l/m 9,2 km/h (2 Bft) O-NO 67 8,6 C 18,7 C 12,0 km/h (2 Bft)
19.05.2019 17:54 16,9 C 18,7 C 19,5 C 58 % 52 % 1002,8 hPa 0,0 l/m 10,0 km/h (2 Bft) O-SO 112 8,6 C 18,7 C 14,1 km/h (3 Bft)
19.05.2019 17:52 16,9 C 18,9 C 19,8 C 59 % 52 % 1002,6 hPa 0,0 l/m 9,7 km/h (2 Bft) O 90 8,8 C 18,9 C 11,6 km/h (2 Bft)
19.05.2019 17:50 16,9 C 19,1 C 20,3 C 58 % 52 % 1002,6 hPa 0,0 l/m 10,3 km/h (2 Bft) O-SO 112 9,0 C 19,1 C 26,7 km/h (4 Bft)
19.05.2019 17:48 16,9 C 19,1 C 20,8 C 59 % 51 % 1002,6 hPa 0,0 l/m 10,3 km/h (2 Bft) O-SO 112 8,7 C 19,1 C 5,8 km/h (2 Bft)
19.05.2019 17:46 16,9 C 19,2 C 21,3 C 58 % 51 % 1002,6 hPa 0,0 l/m 10,6 km/h (2 Bft) SO 135 8,8 C 19,2 C 10,8 km/h (2 Bft)
19.05.2019 17:44 16,9 C 19,3 C 21,5 C 58 % 50 % 1002,6 hPa 0,0 l/m 10,5 km/h (2 Bft) O-SO 112 8,6 C 19,3 C 19,5 km/h (3 Bft)
19.05.2019 17:42 16,9 C 19,4 C 21,5 C 58 % 49 % 1002,6 hPa 0,0 l/m 10,3 km/h (2 Bft) O-SO 112 8,4 C 19,4 C 10,4 km/h (2 Bft)
19.05.2019 17:40 17,0 C 19,7 C 21,7 C 58 % 50 % 1002,6 hPa 0,0 l/m 10,1 km/h (2 Bft) O-NO 67 9,0 C 19,7 C 14,1 km/h (3 Bft)
19.05.2019 17:38 17,0 C 19,8 C 22,2 C 58 % 51 % 1002,6 hPa 0,0 l/m 9,8 km/h (2 Bft) O-SO 112 9,4 C 19,8 C 12,7 km/h (3 Bft)
19.05.2019 17:36 16,9 C 19,8 C 23,6 C 58 % 50 % 1002,6 hPa 0,0 l/m 9,7 km/h (2 Bft) O-SO 112 9,1 C 19,8 C 14,1 km/h (3 Bft)
19.05.2019 17:34 16,9 C 19,7 C 23,6 C 58 % 50 % 1002,6 hPa 0,0 l/m 9,7 km/h (2 Bft) SO 135 9,0 C 19,7 C 20,5 km/h (4 Bft)
19.05.2019 17:32 17,0 C 19,9 C 24,2 C 58 % 50 % 1002,6 hPa 0,0 l/m 10,0 km/h (2 Bft) SO 135 9,2 C 19,9 C 15,8 km/h (3 Bft)
19.05.2019 17:30 16,9 C 20,0 C 25,1 C 58 % 52 % 1002,6 hPa 0,0 l/m 9,3 km/h (2 Bft) SO 135 9,8 C 20,0 C 14,5 km/h (3 Bft)
19.05.2019 17:28 17,0 C 20,1 C 25,8 C 58 % 49 % 1002,6 hPa 0,0 l/m 8,4 km/h (2 Bft) SO 135 9,0 C 20,1 C 15,4 km/h (3 Bft)
19.05.2019 17:26 16,9 C 20,0 C 25,9 C 58 % 49 % 1002,6 hPa 0,0 l/m 9,3 km/h (2 Bft) O-SO 112 9,0 C 20,0 C 8,5 km/h (2 Bft)
19.05.2019 17:24 17,0 C 20,1 C 26,6 C 58 % 48 % 1002,6 hPa 0,0 l/m 9,8 km/h (2 Bft) O-SO 112 8,7 C 20,1 C 14,1 km/h (3 Bft)
19.05.2019 17:22 17,0 C 20,5 C 27,1 C 58 % 48 % 1002,6 hPa 0,0 l/m 8,7 km/h (2 Bft) O-NO 67 9,1 C 20,5 C 18,2 km/h (3 Bft)
19.05.2019 17:20 17,0 C 20,4 C 26,4 C 58 % 50 % 1002,6 hPa 0,0 l/m 8,2 km/h (2 Bft) O-NO 67 9,6 C 20,4 C 7,7 km/h (2 Bft)
19.05.2019 17:18 17,0 C 20,0 C 24,5 C 58 % 49 % 1002,6 hPa 0,0 l/m 8,2 km/h (2 Bft) W-SW 247 9,0 C 20,0 C 5,4 km/h (1 Bft)
19.05.2019 17:16 17,0 C 20,1 C 25,2 C 58 % 47 % 1002,6 hPa 0,0 l/m 8,0 km/h (2 Bft) SO 135 8,4 C 20,1 C 20,9 km/h (4 Bft)
19.05.2019 17:14 17,0 C 20,4 C 26,1 C 58 % 47 % 1002,6 hPa 0,0 l/m 7,2 km/h (2 Bft) SO 135 8,7 C 20,4 C 20,5 km/h (4 Bft)
19.05.2019 17:12 17,0 C 20,7 C 25,6 C 58 % 46 % 1002,6 hPa 0,0 l/m 6,8 km/h (2 Bft) S-SO 157 8,7 C 20,7 C 6,8 km/h (2 Bft)
19.05.2019 17:10 17,0 C 20,9 C 27,6 C 58 % 46 % 1002,6 hPa 0,0 l/m 6,8 km/h (2 Bft) O 90 8,8 C 20,9 C 14,1 km/h (3 Bft)
19.05.2019 17:08 17,0 C 20,8 C 27,0 C 58 % 48 % 1002,6 hPa 0,0 l/m 6,6 km/h (2 Bft) SO 135 9,4 C 20,8 C 10,8 km/h (2 Bft)
19.05.2019 17:06 17,0 C 20,5 C 26,3 C 58 % 46 % 1002,6 hPa 0,0 l/m 6,4 km/h (2 Bft) S-SO 157 8,5 C 20,5 C 11,8 km/h (2 Bft)
19.05.2019 17:04 17,1 C 20,0 C 24,8 C 58 % 48 % 1002,6 hPa 0,0 l/m 6,3 km/h (2 Bft) SO 135 8,7 C 20,0 C 10,4 km/h (2 Bft)
19.05.2019 17:02 17,0 C 20,2 C 22,2 C 58 % 48 % 1002,6 hPa 0,0 l/m 6,9 km/h (2 Bft) O 90 8,8 C 20,2 C 9,3 km/h (2 Bft)
19.05.2019 17:00 17,0 C 20,3 C 24,8 C 58 % 48 % 1002,6 hPa 0,0 l/m 6,9 km/h (2 Bft) SO 135 8,9 C 20,3 C 5,4 km/h (1 Bft)
19.05.2019 16:58 17,1 C 20,5 C 25,7 C 58 % 46 % 1002,6 hPa 0,0 l/m 7,7 km/h (2 Bft) O 90 8,5 C 20,5 C 6,4 km/h (2 Bft)
19.05.2019 16:56 17,1 C 21,1 C 30,1 C 58 % 46 % 1002,6 hPa 0,0 l/m 7,7 km/h (2 Bft) SO 135 9,0 C 21,1 C 14,5 km/h (3 Bft)
19.05.2019 16:54 17,1 C 21,1 C 30,6 C 58 % 46 % 1002,6 hPa 0,0 l/m 7,2 km/h (2 Bft) O 90 9,0 C 21,1 C 7,0 km/h (2 Bft)
19.05.2019 16:52 17,1 C 21,2 C 30,3 C 58 % 44 % 1002,8 hPa 0,0 l/m 6,9 km/h (2 Bft) SO 135 8,5 C 21,2 C 13,5 km/h (3 Bft)
19.05.2019 16:50 17,1 C 21,2 C 30,6 C 58 % 46 % 1002,8 hPa 0,0 l/m 6,9 km/h (2 Bft) S 180 9,1 C 21,2 C 12,2 km/h (2 Bft)
19.05.2019 16:48 17,1 C 21,0 C 30,6 C 58 % 43 % 1002,8 hPa 0,0 l/m 7,4 km/h (2 Bft) SO 135 7,9 C 21,0 C 11,6 km/h (2 Bft)
19.05.2019 16:46 17,1 C 21,1 C 31,0 C 58 % 42 % 1002,8 hPa 0,0 l/m 7,2 km/h (2 Bft) SO 135 7,7 C 21,1 C 8,5 km/h (2 Bft)
19.05.2019 16:44 17,2 C 21,1 C 30,6 C 58 % 44 % 1002,8 hPa 0,0 l/m 7,7 km/h (2 Bft) O-SO 112 8,4 C 21,1 C 10,0 km/h (2 Bft)
19.05.2019 16:42 17,2 C 20,9 C 30,3 C 58 % 43 % 1002,8 hPa 0,0 l/m 8,4 km/h (2 Bft) S-SO 157 7,8 C 20,9 C 7,3 km/h (2 Bft)
19.05.2019 16:40 17,1 C 20,9 C 30,6 C 58 % 41 % 1002,8 hPa 0,0 l/m 8,5 km/h (2 Bft) NO 45 7,2 C 20,9 C 13,9 km/h (3 Bft)
19.05.2019 16:38 17,2 C 21,0 C 30,8 C 58 % 41 % 1002,8 hPa 0,0 l/m 8,5 km/h (2 Bft) O 90 7,2 C 21,0 C 14,5 km/h (3 Bft)
19.05.2019 16:36 17,2 C 21,0 C 30,2 C 58 % 45 % 1002,8 hPa 0,0 l/m 8,4 km/h (2 Bft) S-SO 157 8,6 C 21,0 C 7,3 km/h (2 Bft)
19.05.2019 16:34 17,2 C 20,9 C 29,8 C 58 % 42 % 1002,8 hPa 0,0 l/m 8,5 km/h (2 Bft) S-SO 157 7,5 C 20,9 C 12,2 km/h (2 Bft)
19.05.2019 16:32 17,2 C 20,9 C 30,0 C 58 % 43 % 1003,0 hPa 0,0 l/m 8,4 km/h (2 Bft) S-SO 157 7,8 C 20,9 C 15,1 km/h (3 Bft)
19.05.2019 16:30 17,2 C 20,9 C 30,5 C 58 % 40 % 1003,0 hPa 0,0 l/m 8,4 km/h (2 Bft) O 90 6,8 C 20,9 C 12,6 km/h (3 Bft)
19.05.2019 16:28 17,2 C 21,0 C 30,6 C 58 % 42 % 1003,0 hPa 0,0 l/m 7,9 km/h (2 Bft) SO 135 7,6 C 21,0 C 18,2 km/h (3 Bft)
19.05.2019 16:26 17,2 C 21,1 C 31,2 C 58 % 41 % 1003,0 hPa 0,0 l/m 7,2 km/h (2 Bft) O-SO 112 7,3 C 21,1 C 13,9 km/h (3 Bft)
19.05.2019 16:24 17,2 C 21,2 C 32,0 C 58 % 40 % 1003,0 hPa 0,0 l/m 6,9 km/h (2 Bft) SO 135 7,1 C 21,2 C 12,0 km/h (2 Bft)
19.05.2019 16:22 17,2 C 21,2 C 32,2 C 58 % 40 % 1003,0 hPa 0,0 l/m 6,6 km/h (2 Bft) O 90 7,1 C 21,2 C 10,4 km/h (2 Bft)
19.05.2019 16:20 17,2 C 21,2 C 32,3 C 58 % 41 % 1003,0 hPa 0,0 l/m 7,4 km/h (2 Bft) SO 135 7,4 C 21,2 C 8,7 km/h (2 Bft)
19.05.2019 16:18 17,2 C 21,1 C 32,0 C 58 % 44 % 1003,0 hPa 0,0 l/m 8,5 km/h (2 Bft) SO 135 8,4 C 21,1 C 7,0 km/h (2 Bft)
19.05.2019 16:16 17,2 C 21,2 C 32,6 C 58 % 41 % 1003,0 hPa 0,0 l/m 10,0 km/h (2 Bft) S-SO 157 7,4 C 21,2 C 13,7 km/h (3 Bft)
19.05.2019 16:14 17,2 C 21,2 C 32,8 C 58 % 40 % 1003,0 hPa 0,0 l/m 12,1 km/h (2 Bft) SO 135 7,1 C 21,2 C 7,3 km/h (2 Bft)
19.05.2019 16:12 17,2 C 21,1 C 34,0 C 58 % 45 % 1003,1 hPa 0,0 l/m 13,7 km/h (3 Bft) S 180 8,7 C 21,1 C 5,4 km/h (1 Bft)
19.05.2019 16:10 17,2 C 20,7 C 33,8 C 58 % 40 % 1003,1 hPa 0,0 l/m 14,5 km/h (3 Bft) O-NO 67 6,6 C 20,7 C 24,3 km/h (4 Bft)
19.05.2019 16:08 17,2 C 20,7 C 33,1 C 58 % 42 % 1003,1 hPa 0,0 l/m 13,2 km/h (3 Bft) NO 45 7,3 C 20,7 C 9,8 km/h (2 Bft)
19.05.2019 16:06 17,2 C 20,6 C 33,6 C 58 % 43 % 1003,1 hPa 0,0 l/m 13,0 km/h (3 Bft) O-NO 67 7,6 C 20,6 C 19,3 km/h (3 Bft)
19.05.2019 16:04 17,2 C 20,8 C 34,3 C 58 % 45 % 1003,1 hPa 0,0 l/m 13,4 km/h (3 Bft) O-NO 67 8,4 C 20,8 C 29,0 km/h (5 Bft)
19.05.2019 16:02 17,2 C 20,9 C 34,6 C 58 % 44 % 1003,1 hPa 0,0 l/m 10,5 km/h (2 Bft) O-NO 67 8,2 C 20,9 C 15,3 km/h (3 Bft)
19.05.2019 16:00 17,2 C 20,9 C 34,1 C 58 % 47 % 1003,1 hPa 0,0 l/m 9,0 km/h (2 Bft) NO 45 9,2 C 20,9 C 24,3 km/h (4 Bft)
19.05.2019 15:58 17,2 C 20,9 C 34,1 C 58 % 45 % 1003,1 hPa 0,0 l/m 8,5 km/h (2 Bft) O-SO 112 8,5 C 20,9 C 19,5 km/h (3 Bft)
19.05.2019 15:56 17,3 C 20,8 C 33,3 C 58 % 43 % 1003,1 hPa 0,0 l/m 7,4 km/h (2 Bft) O-SO 112 7,8 C 20,8 C 13,9 km/h (3 Bft)
19.05.2019 15:54 17,2 C 20,8 C 32,1 C 58 % 43 % 1003,1 hPa 0,0 l/m 7,1 km/h (2 Bft) S 180 7,8 C 20,8 C 17,4 km/h (3 Bft)
19.05.2019 15:52 17,2 C 20,9 C 32,0 C 58 % 44 % 1003,3 hPa 0,0 l/m 6,8 km/h (2 Bft) O-SO 112 8,2 C 20,9 C 8,7 km/h (2 Bft)
19.05.2019 15:50 17,3 C 20,8 C 30,9 C 57 % 43 % 1003,3 hPa 0,0 l/m 6,6 km/h (2 Bft) O-NO 67 7,8 C 20,8 C 4,1 km/h (1 Bft)
19.05.2019 15:48 17,3 C 20,7 C 30,0 C 58 % 43 % 1003,3 hPa 0,0 l/m 6,6 km/h (2 Bft) O-SO 112 7,7 C 20,7 C 9,7 km/h (2 Bft)
19.05.2019 15:46 17,3 C 20,7 C 30,2 C 57 % 44 % 1003,3 hPa 0,0 l/m 6,4 km/h (2 Bft) O-SO 112 8,0 C 20,7 C 8,5 km/h (2 Bft)
19.05.2019 15:44 17,2 C 20,6 C 30,8 C 57 % 44 % 1003,3 hPa 0,0 l/m 6,3 km/h (2 Bft) S-SO 157 7,9 C 20,6 C 14,9 km/h (3 Bft)
19.05.2019 15:42 17,2 C 20,8 C 32,5 C 57 % 43 % 1003,3 hPa 0,0 l/m 5,5 km/h (1 Bft) SO 135 7,8 C 20,8 C 7,9 km/h (2 Bft)
19.05.2019 15:40 17,2 C 20,7 C 32,9 C 57 % 44 % 1003,3 hPa 0,0 l/m 5,1 km/h (1 Bft) SO 135 8,0 C 20,7 C 3,5 km/h (1 Bft)
19.05.2019 15:38 17,2 C 20,6 C 32,6 C 57 % 43 % 1003,3 hPa 0,0 l/m 5,5 km/h (1 Bft) O-NO 67 7,6 C 20,6 C 3,7 km/h (1 Bft)
19.05.2019 15:36 17,2 C 20,6 C 32,9 C 57 % 43 % 1003,3 hPa 0,0 l/m 6,3 km/h (2 Bft) O 90 7,6 C 20,6 C 12,4 km/h (3 Bft)
19.05.2019 15:34 17,4 C 20,7 C 33,8 C 57 % 42 % 1003,3 hPa 0,0 l/m 6,4 km/h (2 Bft) O-SO 112 7,3 C 20,7 C 12,7 km/h (3 Bft)
19.05.2019 15:32 17,4 C 20,7 C 34,4 C 57 % 47 % 1003,5 hPa 0,0 l/m 6,4 km/h (2 Bft) O-SO 112 9,0 C 20,7 C 7,3 km/h (2 Bft)
19.05.2019 15:30 17,4 C 20,3 C 34,2 C 57 % 44 % 1003,5 hPa 0,0 l/m 6,9 km/h (2 Bft) NO 45 7,6 C 20,3 C 4,1 km/h (1 Bft)
19.05.2019 15:28 17,4 C 20,3 C 33,5 C 57 % 44 % 1003,5 hPa 0,0 l/m 8,2 km/h (2 Bft) O-SO 112 7,6 C 20,3 C 7,3 km/h (2 Bft)
19.05.2019 15:26 17,4 C 20,4 C 33,3 C 57 % 45 % 1003,5 hPa 0,0 l/m 9,0 km/h (2 Bft) O-SO 112 8,1 C 20,4 C 10,0 km/h (2 Bft)
19.05.2019 15:24 17,4 C 20,3 C 33,3 C 57 % 47 % 1003,5 hPa 0,0 l/m 8,7 km/h (2 Bft) O 90 8,6 C 20,3 C 7,0 km/h (2 Bft)
19.05.2019 15:22 17,4 C 20,2 C 33,9 C 57 % 43 % 1003,5 hPa 0,0 l/m 8,7 km/h (2 Bft) SO 135 7,2 C 20,2 C 10,6 km/h (2 Bft)
19.05.2019 15:20 17,4 C 20,5 C 34,1 C 57 % 44 % 1003,5 hPa 0,0 l/m 10,1 km/h (2 Bft) O-NO 67 7,8 C 20,5 C 9,3 km/h (2 Bft)
19.05.2019 15:18 17,4 C 20,5 C 35,1 C 57 % 44 % 1003,5 hPa 0,0 l/m 10,9 km/h (2 Bft) S 180 7,8 C 20,5 C 15,6 km/h (3 Bft)
19.05.2019 15:16 17,5 C 20,3 C 35,2 C 57 % 44 % 1003,5 hPa 0,0 l/m 11,9 km/h (2 Bft) O-NO 67 7,6 C 20,3 C 12,9 km/h (3 Bft)
19.05.2019 15:14 17,4 C 20,4 C 35,0 C 57 % 50 % 1003,5 hPa 0,0 l/m 12,6 km/h (3 Bft) NO 45 9,6 C 20,4 C 8,3 km/h (2 Bft)
19.05.2019 15:12 17,4 C 20,4 C 34,2 C 57 % 44 % 1003,6 hPa 0,0 l/m 12,7 km/h (3 Bft) O-NO 67 7,7 C 20,4 C 12,4 km/h (3 Bft)
19.05.2019 15:10 17,5 C 20,6 C 34,0 C 57 % 45 % 1003,6 hPa 0,0 l/m 12,6 km/h (3 Bft) O-NO 67 8,2 C 20,6 C 25,3 km/h (4 Bft)
19.05.2019 15:08 17,5 C 20,6 C 33,8 C 57 % 49 % 1003,6 hPa 0,0 l/m 11,9 km/h (2 Bft) O-SO 112 9,5 C 20,6 C 12,2 km/h (2 Bft)
19.05.2019 15:06 17,5 C 20,8 C 35,0 C 57 % 45 % 1003,6 hPa 0,0 l/m 11,6 km/h (2 Bft) SO 135 8,4 C 20,8 C 31,9 km/h (5 Bft)
19.05.2019 15:04 17,5 C 20,6 C 34,9 C 57 % 47 % 1003,6 hPa 0,0 l/m 11,7 km/h (2 Bft) SO 135 8,9 C 20,6 C 12,9 km/h (3 Bft)
19.05.2019 15:02 17,5 C 20,7 C 35,7 C 57 % 48 % 1003,6 hPa 0,0 l/m 11,9 km/h (2 Bft) O-NO 67 9,3 C 20,7 C 8,9 km/h (2 Bft)
19.05.2019 15:00 17,5 C 20,8 C 35,7 C 57 % 47 % 1003,6 hPa 0,0 l/m 11,4 km/h (2 Bft) NO 45 9,1 C 20,8 C 10,2 km/h (2 Bft)
19.05.2019 14:58 17,6 C 21,0 C 36,2 C 57 % 50 % 1003,6 hPa 0,0 l/m 10,5 km/h (2 Bft) O 90 10,2 C 21,0 C 26,1 km/h (4 Bft)
19.05.2019 14:56 17,6 C 20,8 C 35,2 C 57 % 50 % 1003,6 hPa 0,0 l/m 10,9 km/h (2 Bft) S-SO 157 10,0 C 20,8 C 20,1 km/h (4 Bft)
19.05.2019 14:54 17,6 C 20,6 C 35,1 C 57 % 50 % 1003,6 hPa 0,0 l/m 11,1 km/h (2 Bft) O-SO 112 9,8 C 20,6 C 14,1 km/h (3 Bft)
19.05.2019 14:52 17,6 C 20,6 C 35,2 C 57 % 48 % 1003,9 hPa 0,0 l/m 10,5 km/h (2 Bft) N-NO 22 9,2 C 20,6 C 17,2 km/h (3 Bft)
19.05.2019 14:50 17,6 C 20,2 C 34,6 C 57 % 52 % 1003,9 hPa 0,0 l/m 11,9 km/h (2 Bft) S 180 10,0 C 20,2 C 11,4 km/h (2 Bft)
19.05.2019 14:48 17,6 C 20,0 C 34,1 C 57 % 48 % 1003,9 hPa 0,0 l/m 12,4 km/h (3 Bft) S-SO 157 8,7 C 20,0 C 17,8 km/h (3 Bft)
19.05.2019 14:46 17,6 C 20,0 C 33,7 C 57 % 46 % 1003,9 hPa 0,0 l/m 12,9 km/h (3 Bft) S-SO 157 8,0 C 20,0 C 26,3 km/h (4 Bft)
19.05.2019 14:44 17,6 C 20,4 C 34,3 C 57 % 44 % 1003,9 hPa 0,0 l/m 12,1 km/h (2 Bft) O-SO 112 7,7 C 20,4 C 29,7 km/h (5 Bft)
19.05.2019 14:42 17,6 C 20,4 C 34,7 C 57 % 48 % 1003,9 hPa 0,0 l/m 11,3 km/h (2 Bft) O-SO 112 9,0 C 20,4 C 12,2 km/h (2 Bft)
19.05.2019 14:40 17,6 C 20,1 C 34,7 C 57 % 44 % 1003,9 hPa 0,0 l/m 9,5 km/h (2 Bft) S-SO 157 7,5 C 20,1 C 18,0 km/h (3 Bft)
19.05.2019 14:38 17,6 C 20,1 C 35,1 C 57 % 47 % 1003,9 hPa 0,0 l/m 8,7 km/h (2 Bft) S-SO 157 8,4 C 20,1 C 6,8 km/h (2 Bft)
19.05.2019 14:36 17,6 C 20,0 C 34,7 C 57 % 44 % 1003,9 hPa 0,0 l/m 9,3 km/h (2 Bft) S-SO 157 7,4 C 20,0 C 15,3 km/h (3 Bft)
19.05.2019 14:34 17,6 C 20,0 C 36,0 C 57 % 45 % 1003,9 hPa 0,0 l/m 9,2 km/h (2 Bft) S-SO 157 7,7 C 20,0 C 27,6 km/h (4 Bft)
19.05.2019 14:32 17,6 C 19,8 C 36,2 C 57 % 46 % 1004,1 hPa 0,0 l/m 8,9 km/h (2 Bft) O 90 7,8 C 19,8 C 20,3 km/h (4 Bft)
19.05.2019 14:30 17,7 C 19,7 C 36,8 C 57 % 42 % 1004,1 hPa 0,0 l/m 9,5 km/h (2 Bft) N-NO 22 6,4 C 19,7 C 2,9 km/h (1 Bft)
19.05.2019 14:28 17,7 C 20,0 C 36,1 C 57 % 44 % 1004,1 hPa 0,0 l/m 9,5 km/h (2 Bft) O-NO 67 7,4 C 20,0 C 14,5 km/h (3 Bft)
19.05.2019 14:26 17,7 C 20,0 C 34,4 C 57 % 46 % 1004,1 hPa 0,0 l/m 8,7 km/h (2 Bft) SO 135 8,0 C 20,0 C 12,7 km/h (3 Bft)
19.05.2019 14:24 17,7 C 20,0 C 34,7 C 57 % 45 % 1004,1 hPa 0,0 l/m 9,8 km/h (2 Bft) O-SO 112 7,7 C 20,0 C 13,9 km/h (3 Bft)
19.05.2019 14:22 17,7 C 20,1 C 34,7 C 57 % 45 % 1004,1 hPa 0,0 l/m 9,5 km/h (2 Bft) O 90 7,8 C 20,1 C 18,7 km/h (3 Bft)
19.05.2019 14:20 17,7 C 20,0 C 35,4 C 57 % 42 % 1004,1 hPa 0,0 l/m 8,7 km/h (2 Bft) SO 135 6,7 C 20,0 C 11,0 km/h (2 Bft)
19.05.2019 14:18 17,7 C 19,9 C 35,4 C 57 % 43 % 1004,1 hPa 0,0 l/m 9,0 km/h (2 Bft) S 180 6,9 C 19,9 C 4,8 km/h (1 Bft)
19.05.2019 14:16 17,8 C 19,7 C 35,8 C 57 % 45 % 1004,1 hPa 0,0 l/m 9,0 km/h (2 Bft) O-SO 112 7,4 C 19,7 C 0,0 km/h (0 Bft)
19.05.2019 14:14 17,8 C 19,5 C 35,8 C 57 % 43 % 1004,1 hPa 0,0 l/m 10,1 km/h (2 Bft) O-NO 67 6,6 C 19,5 C 20,9 km/h (4 Bft)
19.05.2019 14:12 17,8 C 19,6 C 35,4 C 57 % 40 % 1004,2 hPa 0,0 l/m 8,9 km/h (2 Bft) NO 45 5,6 C 19,6 C 9,3 km/h (2 Bft)
19.05.2019 14:10 17,8 C 19,7 C 36,2 C 57 % 46 % 1004,2 hPa 0,0 l/m 9,0 km/h (2 Bft) O-NO 67 7,8 C 19,7 C 13,1 km/h (3 Bft)
19.05.2019 14:08 17,8 C 19,6 C 35,0 C 57 % 43 % 1004,2 hPa 0,0 l/m 8,7 km/h (2 Bft) SO 135 6,7 C 19,6 C 10,4 km/h (2 Bft)
19.05.2019 14:06 17,8 C 19,4 C 33,9 C 57 % 47 % 1004,2 hPa 0,0 l/m 8,5 km/h (2 Bft) O-NO 67 7,8 C 19,4 C 28,4 km/h (4 Bft)
19.05.2019 14:04 17,8 C 19,3 C 32,9 C 57 % 43 % 1004,2 hPa 0,0 l/m 7,4 km/h (2 Bft) NO 45 6,4 C 19,3 C 12,7 km/h (3 Bft)
19.05.2019 14:02 17,9 C 19,2 C 31,3 C 57 % 45 % 1004,2 hPa 0,0 l/m 8,5 km/h (2 Bft) S-SO 157 7,0 C 19,2 C 7,7 km/h (2 Bft)
19.05.2019 14:00 17,8 C 19,4 C 32,5 C 57 % 44 % 1004,2 hPa 0,0 l/m 9,3 km/h (2 Bft) O-SO 112 6,8 C 19,4 C 10,4 km/h (2 Bft)
19.05.2019 13:58 17,9 C 19,5 C 33,5 C 57 % 41 % 1004,2 hPa 0,0 l/m 10,5 km/h (2 Bft) O-NO 67 5,9 C 19,5 C 10,0 km/h (2 Bft)
19.05.2019 13:56 17,9 C 20,0 C 33,4 C 57 % 45 % 1004,2 hPa 0,0 l/m 11,6 km/h (2 Bft) O-SO 112 7,7 C 20,0 C 22,8 km/h (4 Bft)
19.05.2019 13:54 17,9 C 19,7 C 34,7 C 57 % 49 % 1004,2 hPa 0,0 l/m 12,2 km/h (2 Bft) O-SO 112 8,7 C 19,7 C 3,7 km/h (1 Bft)
19.05.2019 13:52 17,9 C 19,4 C 34,2 C 57 % 45 % 1004,6 hPa 0,0 l/m 13,5 km/h (3 Bft) SO 135 7,2 C 19,4 C 16,2 km/h (3 Bft)
19.05.2019 13:50 17,9 C 19,6 C 35,7 C 57 % 45 % 1004,6 hPa 0,0 l/m 12,2 km/h (2 Bft) S-SO 157 7,3 C 19,6 C 17,8 km/h (3 Bft)
19.05.2019 13:48 17,9 C 19,5 C 37,0 C 57 % 47 % 1004,6 hPa 0,0 l/m 12,1 km/h (2 Bft) SO 135 7,9 C 19,5 C 19,5 km/h (3 Bft)
19.05.2019 13:46 17,9 C 19,5 C 38,8 C 57 % 50 % 1004,6 hPa 0,0 l/m 12,2 km/h (2 Bft) O-NO 67 8,8 C 19,5 C 22,6 km/h (4 Bft)
19.05.2019 13:44 17,9 C 19,7 C 38,6 C 57 % 47 % 1004,6 hPa 0,0 l/m 11,1 km/h (2 Bft) O-NO 67 8,1 C 19,7 C 15,8 km/h (3 Bft)
19.05.2019 13:42 17,9 C 19,6 C 38,1 C 57 % 49 % 1004,6 hPa 0,0 l/m 9,0 km/h (2 Bft) O-NO 67 8,6 C 19,6 C 22,4 km/h (4 Bft)
19.05.2019 13:40 18,0 C 19,4 C 38,1 C 57 % 47 % 1004,6 hPa 0,0 l/m 8,9 km/h (2 Bft) NO 45 7,8 C 19,4 C 11,6 km/h (2 Bft)
19.05.2019 13:38 17,9 C 19,4 C 37,8 C 57 % 46 % 1004,6 hPa 0,0 l/m 9,3 km/h (2 Bft) O-NO 67 7,5 C 19,4 C 15,6 km/h (3 Bft)
19.05.2019 13:36 18,0 C 19,7 C 37,6 C 57 % 45 % 1004,6 hPa 0,0 l/m 9,2 km/h (2 Bft) O-NO 67 7,4 C 19,7 C 22,2 km/h (4 Bft)
19.05.2019 13:34 17,9 C 19,9 C 36,2 C 57 % 48 % 1004,6 hPa 0,0 l/m 8,0 km/h (2 Bft) O 90 8,6 C 19,9 C 13,3 km/h (3 Bft)
19.05.2019 13:32 17,9 C 19,9 C 35,9 C 57 % 45 % 1004,6 hPa 0,0 l/m 9,3 km/h (2 Bft) O 90 7,6 C 19,9 C 8,9 km/h (2 Bft)
19.05.2019 13:30 18,0 C 19,9 C 36,2 C 57 % 48 % 1004,6 hPa 0,0 l/m 9,5 km/h (2 Bft) O-NO 67 8,6 C 19,9 C 11,4 km/h (2 Bft)
19.05.2019 13:28 17,9 C 19,7 C 36,6 C 57 % 44 % 1004,6 hPa 0,0 l/m 9,0 km/h (2 Bft) SO 135 7,1 C 19,7 C 29,7 km/h (5 Bft)
19.05.2019 13:26 18,0 C 19,8 C 36,1 C 57 % 47 % 1004,6 hPa 0,0 l/m 9,5 km/h (2 Bft) S-SO 157 8,2 C 19,8 C 15,3 km/h (3 Bft)
19.05.2019 13:24 18,0 C 19,6 C 37,0 C 57 % 50 % 1004,6 hPa 0,0 l/m 10,1 km/h (2 Bft) O-SO 112 8,9 C 19,6 C 17,0 km/h (3 Bft)
19.05.2019 13:22 18,0 C 19,5 C 36,6 C 57 % 51 % 1004,6 hPa 0,0 l/m 10,0 km/h (2 Bft) S-SW 202 9,1 C 19,5 C 12,6 km/h (3 Bft)
19.05.2019 13:20 18,0 C 19,2 C 36,2 C 57 % 46 % 1004,6 hPa 0,0 l/m 9,5 km/h (2 Bft) S 180 7,3 C 19,2 C 17,0 km/h (3 Bft)
19.05.2019 13:18 18,0 C 19,1 C 37,0 C 57 % 47 % 1004,6 hPa 0,0 l/m 9,3 km/h (2 Bft) O 90 7,5 C 19,1 C 10,4 km/h (2 Bft)
19.05.2019 13:16 18,0 C 19,3 C 37,0 C 57 % 47 % 1004,6 hPa 0,0 l/m 9,8 km/h (2 Bft) O-NO 67 7,7 C 19,3 C 17,4 km/h (3 Bft)
19.05.2019 13:14 18,0 C 19,4 C 37,8 C 57 % 48 % 1004,6 hPa 0,0 l/m 10,6 km/h (2 Bft) O-SO 112 8,1 C 19,4 C 23,0 km/h (4 Bft)
19.05.2019 13:12 18,0 C 19,3 C 38,0 C 57 % 50 % 1004,8 hPa 0,0 l/m 10,8 km/h (2 Bft) O-NO 67 8,6 C 19,3 C 21,0 km/h (4 Bft)
19.05.2019 13:10 18,0 C 18,9 C 38,2 C 57 % 49 % 1004,8 hPa 0,0 l/m 11,4 km/h (2 Bft) O 90 7,9 C 18,9 C 4,2 km/h (1 Bft)
19.05.2019 13:08 18,0 C 18,7 C 38,4 C 57 % 47 % 1004,8 hPa 0,0 l/m 12,7 km/h (3 Bft) O-NO 67 7,2 C 18,7 C 12,7 km/h (3 Bft)
19.05.2019 13:06 18,0 C 18,7 C 38,1 C 57 % 50 % 1004,8 hPa 0,0 l/m 13,4 km/h (3 Bft) N-NO 22 8,1 C 18,7 C 17,4 km/h (3 Bft)
19.05.2019 13:04 18,0 C 18,7 C 37,2 C 57 % 50 % 1004,8 hPa 0,0 l/m 13,0 km/h (3 Bft) NO 45 8,1 C 18,7 C 24,1 km/h (4 Bft)
19.05.2019 13:02 18,0 C 18,7 C 35,3 C 57 % 52 % 1004,8 hPa 0,0 l/m 11,4 km/h (2 Bft) N-NO 22 8,6 C 18,7 C 19,5 km/h (3 Bft)
19.05.2019 13:00 18,0 C 19,0 C 36,0 C 57 % 46 % 1004,8 hPa 0,0 l/m 11,3 km/h (2 Bft) NO 45 7,1 C 19,0 C 12,4 km/h (3 Bft)
19.05.2019 12:58 18,0 C 19,0 C 38,4 C 57 % 49 % 1004,8 hPa 0,0 l/m 12,4 km/h (3 Bft) NO 45 8,0 C 19,0 C 11,6 km/h (2 Bft)
19.05.2019 12:56 18,0 C 19,0 C 37,4 C 57 % 48 % 1004,8 hPa 0,0 l/m 12,2 km/h (2 Bft) N-NO 22 7,7 C 19,0 C 25,3 km/h (4 Bft)
19.05.2019 12:54 18,0 C 18,8 C 37,6 C 57 % 46 % 1004,8 hPa 0,0 l/m 12,2 km/h (2 Bft) O 90 6,9 C 18,8 C 17,0 km/h (3 Bft)
19.05.2019 12:52 18,0 C 19,1 C 38,1 C 57 % 47 % 1004,9 hPa 0,0 l/m 12,6 km/h (3 Bft) O-NO 67 7,5 C 19,1 C 32,1 km/h (5 Bft)
19.05.2019 12:50 18,0 C 19,4 C 39,8 C 57 % 49 % 1004,9 hPa 0,0 l/m 13,8 km/h (3 Bft) NO 45 8,4 C 19,4 C 13,5 km/h (3 Bft)
19.05.2019 12:48 18,0 C 19,5 C 40,3 C 57 % 51 % 1004,9 hPa 0,0 l/m 13,8 km/h (3 Bft) O 90 9,1 C 19,5 C 26,8 km/h (4 Bft)
19.05.2019 12:46 18,0 C 19,2 C 39,4 C 57 % 48 % 1004,9 hPa 0,0 l/m 15,9 km/h (3 Bft) O-NO 67 7,9 C 19,2 C 18,9 km/h (3 Bft)
19.05.2019 12:44 17,9 C 19,0 C 38,7 C 57 % 49 % 1004,9 hPa 0,0 l/m 16,6 km/h (3 Bft) NO 45 8,0 C 19,0 C 16,4 km/h (3 Bft)
19.05.2019 12:42 17,9 C 19,0 C 39,1 C 57 % 48 % 1004,9 hPa 0,0 l/m 16,1 km/h (3 Bft) O 90 7,7 C 19,0 C 16,4 km/h (3 Bft)
19.05.2019 12:40 18,0 C 19,1 C 39,7 C 57 % 49 % 1004,9 hPa 0,0 l/m 14,6 km/h (3 Bft) N-NO 22 8,1 C 19,1 C 29,4 km/h (5 Bft)
19.05.2019 12:38 17,9 C 19,0 C 39,4 C 57 % 46 % 1004,9 hPa 0,0 l/m 11,1 km/h (2 Bft) O-NO 67 7,1 C 19,0 C 18,7 km/h (3 Bft)
19.05.2019 12:36 17,9 C 19,2 C 39,0 C 57 % 50 % 1004,9 hPa 0,0 l/m 10,0 km/h (2 Bft) O-NO 67 8,5 C 19,2 C 36,7 km/h (5 Bft)
19.05.2019 12:34 17,9 C 19,0 C 37,2 C 57 % 50 % 1004,9 hPa 0,0 l/m 6,8 km/h (2 Bft) NO 45 8,3 C 19,0 C 22,8 km/h (4 Bft)
19.05.2019 12:32 18,0 C 19,1 C 34,1 C 57 % 50 % 1004,9 hPa 0,0 l/m 5,8 km/h (2 Bft) O-NO 67 8,4 C 19,1 C 10,4 km/h (2 Bft)
19.05.2019 12:30 17,9 C 19,0 C 33,2 C 57 % 45 % 1004,9 hPa 0,0 l/m 5,6 km/h (1 Bft) SO 135 6,8 C 19,0 C 7,0 km/h (2 Bft)
19.05.2019 12:28 17,9 C 18,8 C 33,0 C 57 % 47 % 1004,9 hPa 0,0 l/m 6,8 km/h (2 Bft) SW 225 7,2 C 18,8 C 4,1 km/h (1 Bft)
19.05.2019 12:26 17,9 C 18,8 C 33,3 C 57 % 44 % 1004,9 hPa 0,0 l/m 7,1 km/h (2 Bft) SO 135 6,3 C 18,8 C 8,7 km/h (2 Bft)
19.05.2019 12:24 17,9 C 18,8 C 34,6 C 57 % 50 % 1004,9 hPa 0,0 l/m 7,4 km/h (2 Bft) O 90 8,2 C 18,8 C 9,8 km/h (2 Bft)
19.05.2019 12:22 17,9 C 18,6 C 33,6 C 57 % 51 % 1004,9 hPa 0,0 l/m 8,0 km/h (2 Bft) O-NO 67 8,3 C 18,6 C 10,2 km/h (2 Bft)
19.05.2019 12:20 17,9 C 18,3 C 30,9 C 57 % 48 % 1004,9 hPa 0,0 l/m 7,4 km/h (2 Bft) O 90 7,1 C 18,3 C 8,9 km/h (2 Bft)
19.05.2019 12:18 17,9 C 18,4 C 30,4 C 57 % 49 % 1004,9 hPa 0,0 l/m 7,7 km/h (2 Bft) SO 135 7,5 C 18,4 C 9,3 km/h (2 Bft)
19.05.2019 12:16 17,9 C 18,6 C 31,8 C 57 % 48 % 1004,9 hPa 0,0 l/m 7,4 km/h (2 Bft) O 90 7,4 C 18,6 C 8,1 km/h (2 Bft)
19.05.2019 12:14 17,9 C 18,8 C 32,0 C 57 % 52 % 1004,9 hPa 0,0 l/m 7,2 km/h (2 Bft) NO 45 8,7 C 18,8 C 13,7 km/h (3 Bft)
19.05.2019 12:12 17,9 C 18,5 C 32,1 C 57 % 50 % 1005,1 hPa 0,0 l/m 6,6 km/h (2 Bft) SO 135 7,9 C 18,5 C 8,3 km/h (2 Bft)
19.05.2019 12:10 17,9 C 18,5 C 32,1 C 57 % 50 % 1005,1 hPa 0,0 l/m 6,6 km/h (2 Bft) SO 135 7,9 C 18,5 C 8,3 km/h (2 Bft)
19.05.2019 12:08 17,9 C 18,5 C 32,1 C 57 % 50 % 1005,1 hPa 0,0 l/m 6,6 km/h (2 Bft) SO 135 7,9 C 18,5 C 8,3 km/h (2 Bft)
19.05.2019 12:06 17,9 C 18,5 C 32,1 C 57 % 50 % 1005,1 hPa 0,0 l/m 6,6 km/h (2 Bft) SO 135 7,9 C 18,5 C 8,3 km/h (2 Bft)
19.05.2019 12:04 17,9 C 18,5 C 32,1 C 57 % 50 % 1005,1 hPa 0,0 l/m 6,6 km/h (2 Bft) SO 135 7,9 C 18,5 C 8,3 km/h (2 Bft)
19.05.2019 12:02 17,8 C 18,5 C 32,1 C 57 % 50 % 1005,1 hPa 0,0 l/m 6,6 km/h (2 Bft) SO 135 7,9 C 18,5 C 8,3 km/h (2 Bft)
19.05.2019 12:00 17,8 C 18,6 C 31,6 C 57 % 49 % 1005,1 hPa 0,0 l/m 6,6 km/h (2 Bft) O-NO 67 7,7 C 18,6 C 8,9 km/h (2 Bft)
19.05.2019 11:58 17,9 C 18,8 C 32,1 C 57 % 52 % 1005,1 hPa 0,0 l/m 6,9 km/h (2 Bft) O-NO 67 8,7 C 18,8 C 11,6 km/h (2 Bft)
19.05.2019 11:56 17,8 C 18,2 C 32,2 C 57 % 49 % 1005,1 hPa 0,0 l/m 7,4 km/h (2 Bft) SO 135 7,3 C 18,2 C 11,8 km/h (2 Bft)
19.05.2019 11:54 17,8 C 18,2 C 32,6 C 57 % 49 % 1005,1 hPa 0,0 l/m 6,6 km/h (2 Bft) S-SO 157 7,3 C 18,2 C 11,8 km/h (2 Bft)
19.05.2019 11:52 17,8 C 18,1 C 31,8 C 57 % 49 % 1005,1 hPa 0,0 l/m 6,3 km/h (2 Bft) SO 135 7,2 C 18,1 C 11,4 km/h (2 Bft)
19.05.2019 11:50 17,8 C 18,2 C 29,8 C 57 % 49 % 1005,1 hPa 0,0 l/m 6,1 km/h (2 Bft) SO 135 7,3 C 18,2 C 10,2 km/h (2 Bft)
19.05.2019 11:48 17,9 C 18,2 C 30,4 C 57 % 49 % 1005,1 hPa 0,0 l/m 5,8 km/h (2 Bft) SO 135 7,3 C 18,2 C 13,3 km/h (3 Bft)
19.05.2019 11:46 17,8 C 18,3 C 30,0 C 57 % 50 % 1005,1 hPa 0,0 l/m 5,3 km/h (1 Bft) SO 135 7,7 C 18,3 C 12,0 km/h (2 Bft)
19.05.2019 11:44 17,8 C 18,2 C 28,7 C 57 % 53 % 1005,1 hPa 0,0 l/m 5,5 km/h (1 Bft) NO 45 8,5 C 18,2 C 3,5 km/h (1 Bft)
19.05.2019 11:42 17,8 C 18,0 C 28,5 C 57 % 52 % 1005,1 hPa 0,0 l/m 5,6 km/h (1 Bft) O-SO 112 8,0 C 18,0 C 11,6 km/h (2 Bft)
19.05.2019 11:40 17,8 C 18,2 C 29,2 C 57 % 49 % 1005,1 hPa 0,0 l/m 5,5 km/h (1 Bft) O-NO 67 7,3 C 18,2 C 9,8 km/h (2 Bft)
19.05.2019 11:38 17,8 C 18,0 C 29,5 C 57 % 52 % 1005,1 hPa 0,0 l/m 5,8 km/h (2 Bft) O 90 8,0 C 18,0 C 5,8 km/h (2 Bft)
19.05.2019 11:36 17,8 C 18,0 C 29,0 C 57 % 48 % 1005,1 hPa 0,0 l/m 6,0 km/h (2 Bft) SO 135 6,8 C 18,0 C 5,8 km/h (2 Bft)
19.05.2019 11:34 17,8 C 17,7 C 29,0 C 57 % 50 % 1005,1 hPa 0,0 l/m 6,4 km/h (2 Bft) SO 135 7,1 C 17,7 C 12,7 km/h (3 Bft)
19.05.2019 11:32 17,8 C 17,6 C 27,2 C 57 % 50 % 1005,2 hPa 0,0 l/m 6,4 km/h (2 Bft) O-NO 67 7,1 C 17,6 C 11,8 km/h (2 Bft)
19.05.2019 11:30 17,8 C 17,5 C 27,3 C 57 % 52 % 1005,2 hPa 0,0 l/m 6,6 km/h (2 Bft) O 90 7,5 C 17,5 C 8,3 km/h (2 Bft)
19.05.2019 11:28 17,8 C 17,3 C 26,6 C 57 % 50 % 1005,2 hPa 0,0 l/m 6,8 km/h (2 Bft) O-SO 112 6,8 C 17,3 C 11,0 km/h (2 Bft)
19.05.2019 11:26 17,8 C 17,3 C 25,6 C 57 % 53 % 1005,2 hPa 0,0 l/m 7,1 km/h (2 Bft) O-SO 112 7,6 C 17,3 C 12,2 km/h (2 Bft)
19.05.2019 11:24 17,8 C 17,3 C 26,1 C 57 % 51 % 1005,2 hPa 0,0 l/m 7,6 km/h (2 Bft) SO 135 7,1 C 17,3 C 11,6 km/h (2 Bft)
19.05.2019 11:22 17,8 C 17,6 C 27,1 C 57 % 52 % 1005,2 hPa 0,0 l/m 7,6 km/h (2 Bft) O 90 7,6 C 17,6 C 11,0 km/h (2 Bft)
19.05.2019 11:20 17,8 C 17,4 C 26,6 C 57 % 50 % 1005,2 hPa 0,0 l/m 8,2 km/h (2 Bft) S-SO 157 6,9 C 17,4 C 9,5 km/h (2 Bft)
19.05.2019 11:18 17,8 C 17,3 C 26,5 C 57 % 50 % 1005,2 hPa 0,0 l/m 9,0 km/h (2 Bft) O-SO 112 6,8 C 17,3 C 9,1 km/h (2 Bft)
19.05.2019 11:16 17,9 C 17,4 C 27,9 C 57 % 52 % 1005,2 hPa 0,0 l/m 9,3 km/h (2 Bft) O-NO 67 7,4 C 17,4 C 13,5 km/h (3 Bft)
19.05.2019 11:14 17,9 C 17,4 C 28,3 C 57 % 50 % 1005,2 hPa 0,0 l/m 9,3 km/h (2 Bft) O 90 6,9 C 17,4 C 16,0 km/h (3 Bft)
19.05.2019 11:12 17,8 C 17,4 C 28,5 C 57 % 49 % 1005,2 hPa 0,0 l/m 9,3 km/h (2 Bft) SO 135 6,6 C 17,4 C 10,2 km/h (2 Bft)
19.05.2019 11:10 17,8 C 17,5 C 28,8 C 57 % 50 % 1005,2 hPa 0,0 l/m 8,9 km/h (2 Bft) O 90 7,0 C 17,5 C 14,3 km/h (3 Bft)
19.05.2019 11:08 17,8 C 17,3 C 28,4 C 57 % 48 % 1005,2 hPa 0,0 l/m 8,9 km/h (2 Bft) O-SO 112 6,2 C 17,3 C 16,2 km/h (3 Bft)
19.05.2019 11:06 17,8 C 17,6 C 29,5 C 58 % 48 % 1005,2 hPa 0,0 l/m 8,2 km/h (2 Bft) O-NO 67 6,5 C 17,6 C 13,3 km/h (3 Bft)
19.05.2019 11:04 17,8 C 17,9 C 30,6 C 58 % 50 % 1005,2 hPa 0,0 l/m 7,9 km/h (2 Bft) O-SO 112 7,3 C 17,9 C 13,3 km/h (3 Bft)
19.05.2019 11:02 17,7 C 18,1 C 31,8 C 57 % 48 % 1005,2 hPa 0,0 l/m 8,4 km/h (2 Bft) SO 135 6,9 C 18,1 C 16,0 km/h (3 Bft)
19.05.2019 11:00 17,7 C 17,9 C 32,1 C 57 % 49 % 1005,2 hPa 0,0 l/m 8,2 km/h (2 Bft) O-SO 112 7,0 C 17,9 C 11,4 km/h (2 Bft)
19.05.2019 10:58 17,7 C 17,9 C 31,6 C 57 % 49 % 1005,2 hPa 0,0 l/m 8,7 km/h (2 Bft) SO 135 7,0 C 17,9 C 9,3 km/h (2 Bft)
19.05.2019 10:56 17,7 C 17,9 C 31,9 C 57 % 49 % 1005,2 hPa 0,0 l/m 9,2 km/h (2 Bft) SO 135 7,0 C 17,9 C 11,8 km/h (2 Bft)
19.05.2019 10:54 17,6 C 17,6 C 31,1 C 57 % 53 % 1005,2 hPa 0,0 l/m 9,2 km/h (2 Bft) O 90 7,9 C 17,6 C 11,6 km/h (2 Bft)
19.05.2019 10:52 17,6 C 17,9 C 31,1 C 57 % 53 % 1005,1 hPa 0,0 l/m 9,0 km/h (2 Bft) S-SW 202 8,2 C 17,9 C 17,8 km/h (3 Bft)
19.05.2019 10:50 17,6 C 17,3 C 29,6 C 57 % 50 % 1005,1 hPa 0,0 l/m 8,9 km/h (2 Bft) O-SO 112 6,8 C 17,3 C 12,6 km/h (3 Bft)
19.05.2019 10:48 17,6 C 17,2 C 29,1 C 57 % 51 % 1005,1 hPa 0,0 l/m 8,9 km/h (2 Bft) O-SO 112 7,0 C 17,2 C 16,0 km/h (3 Bft)
19.05.2019 10:46 17,6 C 17,4 C 29,7 C 57 % 50 % 1005,1 hPa 0,0 l/m 8,7 km/h (2 Bft) O-SO 112 6,9 C 17,4 C 17,0 km/h (3 Bft)
19.05.2019 10:44 17,6 C 17,3 C 29,1 C 58 % 51 % 1005,1 hPa 0,0 l/m 8,9 km/h (2 Bft) O 90 7,1 C 17,3 C 12,0 km/h (2 Bft)
19.05.2019 10:42 17,5 C 17,0 C 29,1 C 58 % 50 % 1005,1 hPa 0,0 l/m 8,4 km/h (2 Bft) O-SO 112 6,5 C 17,0 C 10,6 km/h (2 Bft)
19.05.2019 10:40 17,5 C 17,0 C 28,8 C 58 % 52 % 1005,1 hPa 0,0 l/m 8,4 km/h (2 Bft) O 90 7,1 C 17,0 C 10,2 km/h (2 Bft)
19.05.2019 10:38 17,4 C 17,0 C 28,3 C 58 % 53 % 1005,1 hPa 0,0 l/m 9,0 km/h (2 Bft) O-NO 67 7,4 C 17,0 C 9,8 km/h (2 Bft)
19.05.2019 10:36 17,4 C 16,9 C 28,4 C 58 % 50 % 1005,1 hPa 0,0 l/m 9,0 km/h (2 Bft) O-NO 67 6,4 C 16,9 C 19,3 km/h (3 Bft)
19.05.2019 10:34 17,4 C 17,2 C 28,6 C 58 % 54 % 1005,1 hPa 0,0 l/m 8,4 km/h (2 Bft) O-SO 112 7,8 C 17,2 C 19,3 km/h (3 Bft)
19.05.2019 10:32 17,4 C 16,8 C 27,9 C 58 % 51 % 1004,8 hPa 0,0 l/m 8,9 km/h (2 Bft) O-SO 112 6,6 C 16,8 C 11,6 km/h (2 Bft)
19.05.2019 10:30 17,4 C 16,7 C 27,4 C 58 % 52 % 1004,8 hPa 0,0 l/m 9,7 km/h (2 Bft) NO 45 6,8 C 16,7 C 12,9 km/h (3 Bft)
19.05.2019 10:28 17,2 C 16,8 C 27,5 C 58 % 50 % 1004,8 hPa 0,0 l/m 9,0 km/h (2 Bft) O 90 6,3 C 16,8 C 16,8 km/h (3 Bft)
19.05.2019 10:26 17,2 C 16,9 C 27,4 C 58 % 53 % 1004,8 hPa 0,0 l/m 8,9 km/h (2 Bft) O-NO 67 7,3 C 16,9 C 10,8 km/h (2 Bft)
19.05.2019 10:24 17,3 C 16,6 C 25,9 C 58 % 51 % 1004,8 hPa 0,0 l/m 9,0 km/h (2 Bft) O 90 6,4 C 16,6 C 9,5 km/h (2 Bft)
19.05.2019 10:22 17,2 C 16,7 C 24,1 C 58 % 50 % 1004,8 hPa 0,0 l/m 9,3 km/h (2 Bft) O-NO 67 6,2 C 16,7 C 13,1 km/h (3 Bft)
19.05.2019 10:20 17,2 C 17,0 C 23,0 C 58 % 52 % 1004,8 hPa 0,0 l/m 8,4 km/h (2 Bft) O-SO 112 7,1 C 17,0 C 12,0 km/h (2 Bft)
19.05.2019 10:18 17,2 C 16,9 C 21,9 C 58 % 53 % 1004,8 hPa 0,0 l/m 8,2 km/h (2 Bft) S-SO 157 7,3 C 16,9 C 9,7 km/h (2 Bft)
19.05.2019 10:16 17,2 C 16,9 C 21,7 C 58 % 50 % 1004,8 hPa 0,0 l/m 7,7 km/h (2 Bft) O-NO 67 6,4 C 16,9 C 15,1 km/h (3 Bft)
19.05.2019 10:14 17,2 C 16,9 C 21,6 C 58 % 52 % 1004,8 hPa 0,0 l/m 7,6 km/h (2 Bft) SO 135 7,0 C 16,9 C 15,6 km/h (3 Bft)
19.05.2019 10:12 17,1 C 17,3 C 21,5 C 58 % 52 % 1004,6 hPa 0,0 l/m 7,6 km/h (2 Bft) O-SO 112 7,3 C 17,3 C 12,7 km/h (3 Bft)
19.05.2019 10:10 17,1 C 17,1 C 21,5 C 58 % 54 % 1004,6 hPa 0,0 l/m 7,2 km/h (2 Bft) O 90 7,7 C 17,1 C 8,3 km/h (2 Bft)
19.05.2019 10:08 17,1 C 16,8 C 21,3 C 58 % 54 % 1004,6 hPa 0,0 l/m 7,2 km/h (2 Bft) O-SO 112 7,4 C 16,8 C 9,3 km/h (2 Bft)
19.05.2019 10:06 17,0 C 16,5 C 21,0 C 58 % 53 % 1004,6 hPa 0,0 l/m 7,4 km/h (2 Bft) O-SO 112 6,9 C 16,5 C 11,4 km/h (2 Bft)
19.05.2019 10:04 17,0 C 16,3 C 20,7 C 58 % 54 % 1004,6 hPa 0,0 l/m 7,4 km/h (2 Bft) O-SO 112 7,0 C 16,3 C 12,9 km/h (3 Bft)
19.05.2019 10:02 17,0 C 16,1 C 20,6 C 58 % 54 % 1004,6 hPa 0,0 l/m 7,7 km/h (2 Bft) O-SO 112 6,8 C 16,1 C 12,6 km/h (3 Bft)
19.05.2019 10:00 17,0 C 16,0 C 20,6 C 58 % 54 % 1004,6 hPa 0,0 l/m 7,9 km/h (2 Bft) O-NO 67 6,7 C 16,0 C 7,7 km/h (2 Bft)
19.05.2019 09:58 16,9 C 16,0 C 20,9 C 58 % 54 % 1004,6 hPa 0,0 l/m 8,0 km/h (2 Bft) O-NO 67 6,7 C 16,0 C 8,7 km/h (2 Bft)
19.05.2019 09:56 16,9 C 16,2 C 20,9 C 58 % 54 % 1004,6 hPa 0,0 l/m 7,9 km/h (2 Bft) O-SO 112 6,9 C 16,2 C 13,1 km/h (3 Bft)
19.05.2019 09:54 16,9 C 15,9 C 20,8 C 58 % 54 % 1004,6 hPa 0,0 l/m 7,9 km/h (2 Bft) O-SO 112 6,6 C 15,9 C 14,5 km/h (3 Bft)
19.05.2019 09:52 16,9 C 16,0 C 21,3 C 58 % 54 % 1004,5 hPa 0,0 l/m 6,6 km/h (2 Bft) O-SO 112 6,7 C 16,0 C 11,0 km/h (2 Bft)
19.05.2019 09:50 16,8 C 16,0 C 21,6 C 58 % 53 % 1004,5 hPa 0,0 l/m 6,8 km/h (2 Bft) O-SO 112 6,4 C 16,0 C 10,6 km/h (2 Bft)
19.05.2019 09:48 16,8 C 16,1 C 22,2 C 58 % 53 % 1004,5 hPa 0,0 l/m 6,3 km/h (2 Bft) O-SO 112 6,5 C 16,1 C 13,5 km/h (3 Bft)
19.05.2019 09:46 16,8 C 16,1 C 23,3 C 59 % 55 % 1004,5 hPa 0,0 l/m 6,1 km/h (2 Bft) O-SO 112 7,1 C 16,1 C 7,9 km/h (2 Bft)
19.05.2019 09:44 16,7 C 15,7 C 24,2 C 58 % 55 % 1004,5 hPa 0,0 l/m 6,4 km/h (2 Bft) NO 45 6,7 C 15,7 C 11,8 km/h (2 Bft)
19.05.2019 09:42 16,7 C 15,3 C 23,3 C 58 % 58 % 1004,5 hPa 0,0 l/m 6,8 km/h (2 Bft) SO 135 7,1 C 15,3 C 10,8 km/h (2 Bft)
19.05.2019 09:40 16,7 C 15,2 C 22,4 C 58 % 57 % 1004,5 hPa 0,0 l/m 6,9 km/h (2 Bft) O-SO 112 6,7 C 15,2 C 8,9 km/h (2 Bft)
19.05.2019 09:38 16,7 C 15,0 C 21,9 C 58 % 57 % 1004,5 hPa 0,0 l/m 6,4 km/h (2 Bft) O 90 6,6 C 15,0 C 8,1 km/h (2 Bft)
19.05.2019 09:36 16,6 C 14,9 C 20,9 C 58 % 58 % 1004,5 hPa 0,0 l/m 6,4 km/h (2 Bft) O-NO 67 6,7 C 14,9 C 10,0 km/h (2 Bft)
19.05.2019 09:34 16,6 C 14,9 C 19,4 C 58 % 58 % 1004,5 hPa 0,0 l/m 6,6 km/h (2 Bft) SO 135 6,7 C 14,9 C 10,6 km/h (2 Bft)
19.05.2019 09:32 16,7 C 14,9 C 20,2 C 58 % 58 % 1004,7 hPa 0,0 l/m 6,8 km/h (2 Bft) O-NO 67 6,7 C 14,9 C 8,5 km/h (2 Bft)
19.05.2019 09:30 16,7 C 15,0 C 20,0 C 58 % 57 % 1004,7 hPa 0,0 l/m 7,2 km/h (2 Bft) O-SO 112 6,6 C 15,0 C 8,9 km/h (2 Bft)
19.05.2019 09:28 16,6 C 15,0 C 20,8 C 58 % 57 % 1004,7 hPa 0,0 l/m 7,6 km/h (2 Bft) O-SO 112 6,6 C 15,0 C 5,8 km/h (2 Bft)
19.05.2019 09:26 16,6 C 14,6 C 19,4 C 58 % 58 % 1004,7 hPa 0,0 l/m 8,4 km/h (2 Bft) O-NO 67 6,4 C 14,6 C 9,5 km/h (2 Bft)
19.05.2019 09:24 16,7 C 14,7 C 19,1 C 58 % 56 % 1004,7 hPa 0,0 l/m 8,5 km/h (2 Bft) O-NO 67 6,0 C 14,7 C 14,1 km/h (3 Bft)
19.05.2019 09:22 16,6 C 14,8 C 19,6 C 58 % 56 % 1004,7 hPa 0,0 l/m 8,2 km/h (2 Bft) O-SO 112 6,1 C 14,8 C 10,6 km/h (2 Bft)
19.05.2019 09:20 16,6 C 14,8 C 19,7 C 58 % 57 % 1004,7 hPa 0,0 l/m 7,9 km/h (2 Bft) O-SO 112 6,4 C 14,8 C 11,4 km/h (2 Bft)
19.05.2019 09:18 16,6 C 14,8 C 20,6 C 59 % 57 % 1004,7 hPa 0,0 l/m 7,4 km/h (2 Bft) O-NO 67 6,4 C 14,8 C 10,2 km/h (2 Bft)
19.05.2019 09:16 16,6 C 14,9 C 20,7 C 59 % 57 % 1004,7 hPa 0,0 l/m 6,6 km/h (2 Bft) NO 45 6,5 C 14,9 C 16,4 km/h (3 Bft)
19.05.2019 09:14 16,6 C 15,0 C 21,7 C 59 % 59 % 1004,7 hPa 0,0 l/m 6,4 km/h (2 Bft) NW 315 7,1 C 15,0 C 13,3 km/h (3 Bft)
19.05.2019 09:12 16,6 C 15,0 C 21,2 C 59 % 58 % 1004,4 hPa 0,0 l/m 6,4 km/h (2 Bft) O-SO 112 6,8 C 15,0 C 6,8 km/h (2 Bft)
19.05.2019 09:10 16,6 C 14,9 C 21,2 C 59 % 59 % 1004,4 hPa 0,0 l/m 6,1 km/h (2 Bft) O-NO 67 7,0 C 14,9 C 8,5 km/h (2 Bft)
19.05.2019 09:08 16,6 C 14,8 C 20,7 C 59 % 58 % 1004,4 hPa 0,0 l/m 6,3 km/h (2 Bft) O-NO 67 6,6 C 14,8 C 7,1 km/h (2 Bft)
19.05.2019 09:06 16,5 C 14,6 C 19,2 C 59 % 58 % 1004,4 hPa 0,0 l/m 7,4 km/h (2 Bft) O 90 6,4 C 14,6 C 5,8 km/h (2 Bft)
19.05.2019 09:04 16,5 C 14,6 C 17,8 C 59 % 57 % 1004,4 hPa 0,0 l/m 7,9 km/h (2 Bft) O-NO 67 6,2 C 14,6 C 8,1 km/h (2 Bft)
19.05.2019 09:02 16,6 C 14,7 C 20,0 C 59 % 56 % 1004,4 hPa 0,0 l/m 8,2 km/h (2 Bft) O 90 6,0 C 14,7 C 9,5 km/h (2 Bft)
19.05.2019 09:00 16,5 C 14,9 C 20,3 C 59 % 57 % 1004,4 hPa 0,0 l/m 7,7 km/h (2 Bft) SO 135 6,5 C 14,9 C 6,2 km/h (2 Bft)
19.05.2019 08:58 16,5 C 14,7 C 20,1 C 59 % 56 % 1004,4 hPa 0,0 l/m 7,7 km/h (2 Bft) SO 135 6,0 C 14,7 C 12,7 km/h (3 Bft)
19.05.2019 08:56 16,5 C 14,9 C 20,7 C 59 % 56 % 1004,4 hPa 0,0 l/m 7,7 km/h (2 Bft) O-SO 112 6,2 C 14,9 C 17,2 km/h (3 Bft)
19.05.2019 08:54 16,4 C 15,1 C 20,9 C 59 % 56 % 1004,4 hPa 0,0 l/m 6,4 km/h (2 Bft) SO 135 6,4 C 15,1 C 15,3 km/h (3 Bft)
19.05.2019 08:52 16,4 C 15,3 C 22,8 C 59 % 57 % 1004,2 hPa 0,0 l/m 5,8 km/h (2 Bft) O-NO 67 6,8 C 15,3 C 17,2 km/h (3 Bft)
19.05.2019 08:50 16,4 C 15,2 C 22,9 C 59 % 58 % 1004,2 hPa 0,0 l/m 5,8 km/h (2 Bft) S-SO 157 7,0 C 15,2 C 7,3 km/h (2 Bft)
19.05.2019 08:48 16,4 C 15,1 C 21,8 C 59 % 56 % 1004,2 hPa 0,0 l/m 6,0 km/h (2 Bft) SO 135 6,4 C 15,1 C 12,4 km/h (3 Bft)
19.05.2019 08:46 16,4 C 15,3 C 22,1 C 59 % 57 % 1004,2 hPa 0,0 l/m 5,8 km/h (2 Bft) S-SO 157 6,8 C 15,3 C 12,9 km/h (3 Bft)
19.05.2019 08:44 16,4 C 15,2 C 21,7 C 59 % 57 % 1004,2 hPa 0,0 l/m 6,0 km/h (2 Bft) O-NO 67 6,7 C 15,2 C 5,8 km/h (2 Bft)
19.05.2019 08:42 16,3 C 15,0 C 21,1 C 59 % 58 % 1004,2 hPa 0,0 l/m 6,1 km/h (2 Bft) O-SO 112 6,8 C 15,0 C 6,6 km/h (2 Bft)
19.05.2019 08:40 16,2 C 15,0 C 21,2 C 59 % 59 % 1004,2 hPa 0,0 l/m 5,5 km/h (1 Bft) O-SO 112 7,1 C 15,0 C 9,8 km/h (2 Bft)
19.05.2019 08:38 16,2 C 14,9 C 21,3 C 59 % 58 % 1004,2 hPa 0,0 l/m 4,5 km/h (1 Bft) O-SO 112 6,7 C 14,9 C 11,4 km/h (2 Bft)
19.05.2019 08:36 16,2 C 14,8 C 21,1 C 59 % 57 % 1004,2 hPa 0,0 l/m 4,0 km/h (1 Bft) O 90 6,4 C 14,8 C 10,8 km/h (2 Bft)
19.05.2019 08:34 16,2 C 14,9 C 22,6 C 59 % 57 % 1004,2 hPa 0,0 l/m 3,2 km/h (1 Bft) O-NO 67 6,5 C 14,9 C 10,2 km/h (2 Bft)
19.05.2019 08:32 16,1 C 15,4 C 23,0 C 60 % 61 % 1004,1 hPa 0,0 l/m 2,9 km/h (1 Bft) O-NO 67 7,9 C 15,4 C 4,6 km/h (1 Bft)
19.05.2019 08:30 16,1 C 15,2 C 22,3 C 60 % 61 % 1004,1 hPa 0,0 l/m 3,4 km/h (1 Bft) O-NO 67 7,7 C 15,2 C 2,9 km/h (1 Bft)
19.05.2019 08:28 16,1 C 14,8 C 21,4 C 60 % 59 % 1004,1 hPa 0,0 l/m 3,9 km/h (1 Bft) NO 45 6,9 C 14,8 C 0,0 km/h (0 Bft)
19.05.2019 08:26 16,0 C 14,6 C 20,3 C 60 % 61 % 1004,1 hPa 0,0 l/m 4,3 km/h (1 Bft) O 90 7,2 C 14,6 C 5,2 km/h (1 Bft)
19.05.2019 08:24 16,0 C 14,4 C 19,4 C 60 % 62 % 1004,1 hPa 0,0 l/m 4,5 km/h (1 Bft) O-NO 67 7,2 C 14,4 C 5,4 km/h (1 Bft)
19.05.2019 08:22 16,0 C 13,9 C 17,5 C 60 % 61 % 1004,1 hPa 0,0 l/m 4,8 km/h (1 Bft) NO 45 6,5 C 13,9 C 6,2 km/h (2 Bft)
19.05.2019 08:20 15,8 C 13,6 C 15,6 C 60 % 61 % 1004,1 hPa 0,0 l/m 5,0 km/h (1 Bft) NO 45 6,2 C 13,6 C 8,1 km/h (2 Bft)
19.05.2019 08:18 15,8 C 13,6 C 15,0 C 60 % 62 % 1004,1 hPa 0,0 l/m 5,0 km/h (1 Bft) NO 45 6,5 C 13,6 C 7,7 km/h (2 Bft)
19.05.2019 08:16 15,9 C 13,6 C 15,7 C 60 % 62 % 1004,1 hPa 0,0 l/m 5,3 km/h (1 Bft) O-NO 67 6,5 C 13,6 C 3,3 km/h (1 Bft)
19.05.2019 08:14 15,8 C 13,6 C 16,6 C 60 % 61 % 1004,1 hPa 0,0 l/m 5,6 km/h (1 Bft) NO 45 6,2 C 13,6 C 7,5 km/h (2 Bft)
19.05.2019 08:12 15,9 C 13,6 C 17,4 C 60 % 61 % 1003,7 hPa 0,0 l/m 5,6 km/h (1 Bft) O-NO 67 6,2 C 13,6 C 7,7 km/h (2 Bft)
19.05.2019 08:10 15,9 C 13,6 C 17,0 C 60 % 62 % 1003,7 hPa 0,0 l/m 5,8 km/h (2 Bft) NO 45 6,5 C 13,6 C 7,9 km/h (2 Bft)
19.05.2019 08:08 15,8 C 13,5 C 17,2 C 60 % 63 % 1003,7 hPa 0,0 l/m 6,0 km/h (2 Bft) NO 45 6,6 C 13,5 C 8,1 km/h (2 Bft)
19.05.2019 08:06 15,8 C 13,5 C 16,7 C 60 % 63 % 1003,7 hPa 0,0 l/m 6,4 km/h (2 Bft) NO 45 6,6 C 13,5 C 7,1 km/h (2 Bft)
19.05.2019 08:04 15,8 C 13,5 C 17,3 C 60 % 63 % 1003,7 hPa 0,0 l/m 7,4 km/h (2 Bft) O-NO 67 6,6 C 13,5 C 7,3 km/h (2 Bft)
19.05.2019 08:02 15,6 C 13,2 C 16,2 C 60 % 64 % 1003,7 hPa 0,0 l/m 7,9 km/h (2 Bft) O-SO 112 6,5 C 13,2 C 6,6 km/h (2 Bft)
19.05.2019 08:00 15,7 C 13,0 C 16,0 C 60 % 64 % 1003,7 hPa 0,0 l/m 8,7 km/h (2 Bft) NO 45 6,4 C 13,0 C 9,3 km/h (2 Bft)
19.05.2019 07:58 15,7 C 13,0 C 15,9 C 60 % 63 % 1003,7 hPa 0,0 l/m 9,3 km/h (2 Bft) NO 45 6,1 C 13,0 C 11,8 km/h (2 Bft)
19.05.2019 07:56 15,6 C 12,9 C 15,7 C 60 % 63 % 1003,7 hPa 0,0 l/m 9,7 km/h (2 Bft) N-NO 22 6,0 C 12,9 C 10,2 km/h (2 Bft)
19.05.2019 07:54 15,6 C 12,8 C 15,4 C 60 % 64 % 1003,7 hPa 0,0 l/m 9,5 km/h (2 Bft) NO 45 6,2 C 12,8 C 12,0 km/h (2 Bft)
19.05.2019 07:52 15,6 C 12,8 C 15,1 C 60 % 63 % 1003,4 hPa 0,0 l/m 9,2 km/h (2 Bft) N-NO 22 5,9 C 12,8 C 14,7 km/h (3 Bft)
19.05.2019 07:50 15,6 C 12,7 C 15,0 C 60 % 63 % 1003,4 hPa 0,0 l/m 8,9 km/h (2 Bft) N-NO 22 5,8 C 12,7 C 15,1 km/h (3 Bft)
19.05.2019 07:48 15,6 C 12,8 C 15,0 C 60 % 63 % 1003,4 hPa 0,0 l/m 8,7 km/h (2 Bft) N-NO 22 5,9 C 12,8 C 13,5 km/h (3 Bft)
19.05.2019 07:46 15,5 C 12,7 C 15,0 C 60 % 63 % 1003,4 hPa 0,0 l/m 8,5 km/h (2 Bft) N-NO 22 5,8 C 12,7 C 14,1 km/h (3 Bft)
19.05.2019 07:44 15,5 C 12,7 C 14,8 C 60 % 63 % 1003,4 hPa 0,0 l/m 8,4 km/h (2 Bft) N-NO 22 5,8 C 12,7 C 11,6 km/h (2 Bft)
19.05.2019 07:42 15,4 C 12,6 C 14,6 C 60 % 63 % 1003,4 hPa 0,0 l/m 8,5 km/h (2 Bft) N 360 5,7 C 12,6 C 10,0 km/h (2 Bft)
19.05.2019 07:40 15,3 C 12,5 C 14,3 C 60 % 63 % 1003,4 hPa 0,0 l/m 8,9 km/h (2 Bft) N-NO 22 5,7 C 12,5 C 8,7 km/h (2 Bft)
19.05.2019 07:38 15,4 C 12,4 C 14,5 C 60 % 63 % 1003,4 hPa 0,0 l/m 9,3 km/h (2 Bft) NO 45 5,6 C 12,4 C 10,8 km/h (2 Bft)
19.05.2019 07:36 15,2 C 12,3 C 14,5 C 60 % 63 % 1003,4 hPa 0,0 l/m 9,3 km/h (2 Bft) N-NO 22 5,5 C 12,3 C 13,9 km/h (3 Bft)
19.05.2019 07:34 15,2 C 12,3 C 14,1 C 60 % 63 % 1003,4 hPa 0,0 l/m 9,7 km/h (2 Bft) N-NO 22 5,5 C 12,3 C 12,9 km/h (3 Bft)
19.05.2019 07:32 15,2 C 12,3 C 13,8 C 60 % 65 % 1003,4 hPa 0,0 l/m 9,3 km/h (2 Bft) N-NO 22 5,9 C 12,3 C 10,4 km/h (2 Bft)
19.05.2019 07:30 15,1 C 12,2 C 13,5 C 61 % 66 % 1003,4 hPa 0,0 l/m 9,3 km/h (2 Bft) N-NO 22 6,0 C 12,2 C 10,2 km/h (2 Bft)
19.05.2019 07:28 15,1 C 12,1 C 13,0 C 61 % 65 % 1003,4 hPa 0,0 l/m 9,5 km/h (2 Bft) N-NO 22 5,7 C 12,1 C 12,2 km/h (2 Bft)
19.05.2019 07:26 15,2 C 12,1 C 12,7 C 61 % 64 % 1003,4 hPa 0,0 l/m 9,2 km/h (2 Bft) N-NO 22 5,5 C 12,1 C 10,2 km/h (2 Bft)
19.05.2019 07:24 15,2 C 12,1 C 12,7 C 61 % 66 % 1003,4 hPa 0,0 l/m 8,9 km/h (2 Bft) NO 45 5,9 C 12,1 C 13,5 km/h (3 Bft)
19.05.2019 07:22 15,2 C 12,0 C 12,2 C 61 % 65 % 1003,4 hPa 0,0 l/m 8,7 km/h (2 Bft) NO 45 5,6 C 12,0 C 11,2 km/h (2 Bft)
19.05.2019 07:20 15,2 C 12,0 C 11,8 C 61 % 66 % 1003,4 hPa 0,0 l/m 8,2 km/h (2 Bft) N-NO 22 5,8 C 12,0 C 11,2 km/h (2 Bft)
19.05.2019 07:18 15,1 C 12,0 C 11,5 C 61 % 65 % 1003,4 hPa 0,0 l/m 8,2 km/h (2 Bft) NO 45 5,6 C 12,0 C 10,6 km/h (2 Bft)
19.05.2019 07:16 15,1 C 11,9 C 11,1 C 61 % 66 % 1003,4 hPa 0,0 l/m 8,0 km/h (2 Bft) N-NO 22 5,8 C 11,9 C 12,4 km/h (3 Bft)
19.05.2019 07:14 15,0 C 11,8 C 10,7 C 61 % 66 % 1003,4 hPa 0,0 l/m 8,2 km/h (2 Bft) NO 45 5,7 C 11,8 C 11,2 km/h (2 Bft)
19.05.2019 07:12 15,0 C 11,6 C 10,5 C 61 % 67 % 1003,5 hPa 0,0 l/m 8,2 km/h (2 Bft) O-NO 67 5,7 C 11,6 C 10,6 km/h (2 Bft)
19.05.2019 07:10 15,0 C 11,5 C 10,2 C 61 % 68 % 1003,5 hPa 0,0 l/m 8,0 km/h (2 Bft) NO 45 5,8 C 11,5 C 10,8 km/h (2 Bft)
19.05.2019 07:08 15,0 C 11,4 C 10,0 C 61 % 68 % 1003,5 hPa 0,0 l/m 8,0 km/h (2 Bft) NO 45 5,7 C 11,4 C 11,2 km/h (2 Bft)
19.05.2019 07:06 15,0 C 11,2 C 9,7 C 61 % 69 % 1003,5 hPa 0,0 l/m 8,2 km/h (2 Bft) N-NO 22 5,7 C 11,2 C 9,5 km/h (2 Bft)
19.05.2019 07:04 14,8 C 11,1 C 9,5 C 61 % 69 % 1003,5 hPa 0,0 l/m 8,0 km/h (2 Bft) N-NO 22 5,6 C 11,1 C 10,2 km/h (2 Bft)
19.05.2019 07:02 14,8 C 11,0 C 9,2 C 61 % 69 % 1003,5 hPa 0,0 l/m 7,9 km/h (2 Bft) NO 45 5,5 C 11,0 C 8,9 km/h (2 Bft)
19.05.2019 07:00 14,8 C 10,9 C 9,1 C 61 % 69 % 1003,5 hPa 0,0 l/m 8,0 km/h (2 Bft) NO 45 5,4 C 10,9 C 9,7 km/h (2 Bft)
19.05.2019 06:58 14,9 C 10,8 C 8,9 C 61 % 70 % 1003,5 hPa 0,0 l/m 8,2 km/h (2 Bft) NO 45 5,6 C 10,8 C 9,5 km/h (2 Bft)
19.05.2019 06:56 14,9 C 10,7 C 8,8 C 61 % 70 % 1003,5 hPa 0,0 l/m 8,5 km/h (2 Bft) NO 45 5,5 C 10,7 C 10,6 km/h (2 Bft)
19.05.2019 06:54 14,8 C 10,5 C 8,7 C 61 % 71 % 1003,5 hPa 0,0 l/m 8,7 km/h (2 Bft) N-NO 22 5,5 C 10,5 C 9,1 km/h (2 Bft)
19.05.2019 06:52 14,8 C 10,4 C 8,5 C 61 % 72 % 1003,0 hPa 0,0 l/m 9,0 km/h (2 Bft) NO 45 5,6 C 10,4 C 10,0 km/h (2 Bft)
19.05.2019 06:50 14,8 C 10,3 C 8,3 C 61 % 72 % 1003,0 hPa 0,0 l/m 9,2 km/h (2 Bft) NO 45 5,5 C 10,3 C 12,6 km/h (3 Bft)
19.05.2019 06:48 14,8 C 10,3 C 8,2 C 61 % 72 % 1003,0 hPa 0,0 l/m 9,2 km/h (2 Bft) N-NO 22 5,5 C 10,3 C 12,2 km/h (2 Bft)
19.05.2019 06:46 14,8 C 10,2 C 8,0 C 61 % 72 % 1003,0 hPa 0,0 l/m 8,9 km/h (2 Bft) NO 45 5,4 C 10,2 C 12,4 km/h (3 Bft)
19.05.2019 06:44 14,8 C 10,2 C 7,9 C 61 % 72 % 1003,0 hPa 0,0 l/m 8,9 km/h (2 Bft) N-NO 22 5,4 C 10,2 C 11,8 km/h (2 Bft)
19.05.2019 06:42 14,8 C 10,1 C 7,8 C 61 % 72 % 1003,0 hPa 0,0 l/m 8,9 km/h (2 Bft) N-NO 22 5,3 C 10,1 C 11,4 km/h (2 Bft)
19.05.2019 06:40 14,8 C 10,1 C 7,7 C 61 % 72 % 1003,0 hPa 0,0 l/m 8,9 km/h (2 Bft) N-NO 22 5,3 C 10,1 C 12,4 km/h (3 Bft)
19.05.2019 06:38 14,8 C 10,1 C 7,5 C 61 % 72 % 1003,0 hPa 0,0 l/m 8,9 km/h (2 Bft) N-NO 22 5,3 C 10,1 C 12,7 km/h (3 Bft)
19.05.2019 06:36 14,8 C 10,1 C 7,4 C 61 % 72 % 1003,0 hPa 0,0 l/m 9,0 km/h (2 Bft) NO 45 5,3 C 10,1 C 12,6 km/h (3 Bft)
19.05.2019 06:34 14,8 C 10,2 C 7,2 C 61 % 72 % 1003,0 hPa 0,0 l/m 8,9 km/h (2 Bft) NO 45 5,4 C 10,2 C 11,6 km/h (2 Bft)
19.05.2019 06:32 14,8 C 10,2 C 7,0 C 61 % 72 % 1002,9 hPa 0,0 l/m 8,9 km/h (2 Bft) N-NO 22 5,4 C 10,2 C 11,4 km/h (2 Bft)
19.05.2019 06:30 14,7 C 10,2 C 7,0 C 61 % 72 % 1002,9 hPa 0,0 l/m 8,7 km/h (2 Bft) N-NO 22 5,4 C 10,2 C 8,3 km/h (2 Bft)
19.05.2019 06:28 14,6 C 10,1 C 6,9 C 62 % 72 % 1002,9 hPa 0,0 l/m 8,7 km/h (2 Bft) N-NO 22 5,3 C 10,1 C 11,6 km/h (2 Bft)
19.05.2019 06:26 14,8 C 9,9 C 6,8 C 61 % 72 % 1002,9 hPa 0,0 l/m 8,7 km/h (2 Bft) N-NO 22 5,1 C 8,7 C 10,0 km/h (2 Bft)
19.05.2019 06:24 14,6 C 9,9 C 6,8 C 62 % 72 % 1002,9 hPa 0,0 l/m 8,9 km/h (2 Bft) N-NO 22 5,1 C 8,7 C 10,8 km/h (2 Bft)
19.05.2019 06:22 14,6 C 9,9 C 6,8 C 61 % 72 % 1002,9 hPa 0,0 l/m 8,9 km/h (2 Bft) N-NO 22 5,1 C 8,7 C 9,7 km/h (2 Bft)
19.05.2019 06:20 14,6 C 10,1 C 6,9 C 61 % 71 % 1002,9 hPa 0,0 l/m 9,2 km/h (2 Bft) N-NO 22 5,1 C 10,1 C 10,2 km/h (2 Bft)
19.05.2019 06:18 14,6 C 10,4 C 7,0 C 61 % 71 % 1002,9 hPa 0,0 l/m 9,3 km/h (2 Bft) N-NO 22 5,4 C 10,4 C 11,6 km/h (2 Bft)
19.05.2019 06:16 14,8 C 10,3 C 7,0 C 61 % 71 % 1002,9 hPa 0,0 l/m 9,5 km/h (2 Bft) N-NO 22 5,3 C 10,3 C 11,0 km/h (2 Bft)
19.05.2019 06:14 14,6 C 10,3 C 7,0 C 61 % 71 % 1002,9 hPa 0,0 l/m 9,7 km/h (2 Bft) N-NO 22 5,3 C 10,3 C 13,3 km/h (3 Bft)
19.05.2019 06:12 14,6 C 10,4 C 7,1 C 61 % 70 % 1002,9 hPa 0,0 l/m 9,5 km/h (2 Bft) N-NO 22 5,2 C 10,4 C 12,2 km/h (2 Bft)
19.05.2019 06:10 14,6 C 10,4 C 7,1 C 61 % 70 % 1002,9 hPa 0,0 l/m 9,5 km/h (2 Bft) N-NO 22 5,2 C 10,4 C 12,2 km/h (2 Bft)
19.05.2019 06:08 14,8 C 10,4 C 7,1 C 61 % 70 % 1002,9 hPa 0,0 l/m 9,5 km/h (2 Bft) N-NO 22 5,2 C 10,4 C 12,2 km/h (2 Bft)
19.05.2019 06:06 14,6 C 10,4 C 7,1 C 61 % 70 % 1002,9 hPa 0,0 l/m 9,5 km/h (2 Bft) N-NO 22 5,2 C 10,4 C 12,2 km/h (2 Bft)
19.05.2019 06:04 14,8 C 10,4 C 7,1 C 61 % 70 % 1002,9 hPa 0,0 l/m 9,5 km/h (2 Bft) N-NO 22 5,2 C 10,4 C 12,2 km/h (2 Bft)
19.05.2019 06:02 14,6 C 10,4 C 7,1 C 61 % 70 % 1002,9 hPa 0,0 l/m 9,7 km/h (2 Bft) N 360 5,2 C 10,4 C 13,5 km/h (3 Bft)
19.05.2019 06:00 14,6 C 10,5 C 7,2 C 61 % 70 % 1002,9 hPa 0,0 l/m 9,7 km/h (2 Bft) N-NO 22 5,3 C 10,5 C 11,8 km/h (2 Bft)
19.05.2019 05:58 14,6 C 10,6 C 7,1 C 61 % 70 % 1002,9 hPa 0,0 l/m 9,7 km/h (2 Bft) N-NO 22 5,4 C 10,6 C 13,1 km/h (3 Bft)
19.05.2019 05:56 14,6 C 10,5 C 7,0 C 61 % 70 % 1002,9 hPa 0,0 l/m 9,5 km/h (2 Bft) N-NO 22 5,3 C 10,5 C 12,9 km/h (3 Bft)
19.05.2019 05:54 14,7 C 10,4 C 7,0 C 61 % 71 % 1002,9 hPa 0,0 l/m 9,3 km/h (2 Bft) N-NO 22 5,4 C 10,4 C 13,3 km/h (3 Bft)
19.05.2019 05:52 14,6 C 10,4 C 7,0 C 61 % 71 % 1003,1 hPa 0,0 l/m 9,2 km/h (2 Bft) N-NO 22 5,4 C 10,4 C 11,2 km/h (2 Bft)
19.05.2019 05:50 14,6 C 10,3 C 6,8 C 61 % 71 % 1003,1 hPa 0,0 l/m 9,2 km/h (2 Bft) N-NO 22 5,3 C 10,3 C 12,9 km/h (3 Bft)
19.05.2019 05:48 14,6 C 10,3 C 6,7 C 61 % 71 % 1003,1 hPa 0,0 l/m 9,0 km/h (2 Bft) N-NO 22 5,3 C 10,3 C 12,2 km/h (2 Bft)
19.05.2019 05:46 14,6 C 10,2 C 6,7 C 61 % 71 % 1003,1 hPa 0,0 l/m 8,9 km/h (2 Bft) NO 45 5,2 C 10,2 C 11,4 km/h (2 Bft)
19.05.2019 05:44 14,7 C 10,2 C 6,6 C 61 % 71 % 1003,1 hPa 0,0 l/m 8,7 km/h (2 Bft) NO 45 5,2 C 10,2 C 10,6 km/h (2 Bft)
19.05.2019 05:42 14,6 C 10,2 C 6,5 C 61 % 72 % 1003,1 hPa 0,0 l/m 8,9 km/h (2 Bft) N-NO 22 5,4 C 10,2 C 14,5 km/h (3 Bft)
19.05.2019 05:40 14,6 C 10,2 C 6,4 C 61 % 72 % 1003,1 hPa 0,0 l/m 8,5 km/h (2 Bft) N-NO 22 5,4 C 10,2 C 11,8 km/h (2 Bft)
19.05.2019 05:38 14,6 C 10,1 C 6,3 C 61 % 72 % 1003,1 hPa 0,0 l/m 8,5 km/h (2 Bft) N-NO 22 5,3 C 10,1 C 11,6 km/h (2 Bft)
19.05.2019 05:36 14,6 C 10,0 C 6,2 C 61 % 72 % 1003,1 hPa 0,0 l/m 8,5 km/h (2 Bft) N-NO 22 5,2 C 8,9 C 12,4 km/h (3 Bft)
19.05.2019 05:34 14,6 C 10,1 C 6,3 C 61 % 72 % 1003,1 hPa 0,0 l/m 8,7 km/h (2 Bft) N-NO 22 5,3 C 10,1 C 12,2 km/h (2 Bft)
19.05.2019 05:32 14,6 C 10,0 C 6,2 C 61 % 72 % 1003,1 hPa 0,0 l/m 8,7 km/h (2 Bft) N-NO 22 5,2 C 8,9 C 10,4 km/h (2 Bft)
19.05.2019 05:30 14,6 C 10,0 C 6,2 C 61 % 73 % 1003,1 hPa 0,0 l/m 8,9 km/h (2 Bft) N-NO 22 5,4 C 8,8 C 10,8 km/h (2 Bft)
19.05.2019 05:28 14,6 C 9,9 C 6,3 C 61 % 73 % 1003,1 hPa 0,0 l/m 8,7 km/h (2 Bft) N-NO 22 5,3 C 8,7 C 10,2 km/h (2 Bft)
19.05.2019 05:26 14,6 C 9,7 C 6,2 C 61 % 73 % 1003,1 hPa 0,0 l/m 8,7 km/h (2 Bft) N-NO 22 5,1 C 8,5 C 12,7 km/h (3 Bft)
19.05.2019 05:24 14,6 C 10,0 C 6,1 C 61 % 72 % 1003,1 hPa 0,0 l/m 8,5 km/h (2 Bft) N-NO 22 5,2 C 8,9 C 12,9 km/h (3 Bft)
19.05.2019 05:22 14,7 C 10,1 C 6,1 C 61 % 72 % 1003,1 hPa 0,0 l/m 8,2 km/h (2 Bft) N-NO 22 5,3 C 10,1 C 11,6 km/h (2 Bft)
19.05.2019 05:20 14,7 C 9,9 C 6,0 C 61 % 73 % 1003,1 hPa 0,0 l/m 8,4 km/h (2 Bft) N 360 5,3 C 8,8 C 13,1 km/h (3 Bft)
19.05.2019 05:18 14,7 C 9,6 C 5,8 C 61 % 73 % 1003,1 hPa 0,0 l/m 8,0 km/h (2 Bft) N-NO 22 5,0 C 8,5 C 10,6 km/h (2 Bft)
19.05.2019 05:16 14,7 C 9,5 C 5,7 C 61 % 73 % 1003,1 hPa 0,0 l/m 7,9 km/h (2 Bft) N-NO 22 4,9 C 8,4 C 10,0 km/h (2 Bft)
19.05.2019 05:14 14,6 C 9,7 C 5,7 C 61 % 72 % 1003,1 hPa 0,0 l/m 7,6 km/h (2 Bft) NO 45 4,9 C 8,7 C 7,5 km/h (2 Bft)
19.05.2019 05:12 14,7 C 10,0 C 5,8 C 61 % 72 % 1003,0 hPa 0,0 l/m 7,9 km/h (2 Bft) N-NO 22 5,2 C 9,0 C 8,9 km/h (2 Bft)
19.05.2019 05:10 14,7 C 10,0 C 5,8 C 61 % 72 % 1003,0 hPa 0,0 l/m 8,4 km/h (2 Bft) N-NO 22 5,2 C 8,9 C 10,4 km/h (2 Bft)
19.05.2019 05:08 14,7 C 9,8 C 5,8 C 61 % 72 % 1003,0 hPa 0,0 l/m 8,5 km/h (2 Bft) N-NO 22 5,0 C 8,7 C 9,8 km/h (2 Bft)
19.05.2019 05:06 14,7 C 10,0 C 6,0 C 61 % 72 % 1003,0 hPa 0,0 l/m 8,9 km/h (2 Bft) N-NO 22 5,2 C 8,8 C 12,6 km/h (3 Bft)
19.05.2019 05:04 14,6 C 9,8 C 6,1 C 61 % 72 % 1003,0 hPa 0,0 l/m 9,2 km/h (2 Bft) NO 45 5,0 C 8,5 C 10,6 km/h (2 Bft)
19.05.2019 05:01 14,7 C 10,1 C 6,3 C 61 % 72 % 1003,0 hPa 0,0 l/m 9,2 km/h (2 Bft) N-NO 22 5,3 C 10,1 C 11,2 km/h (2 Bft)
19.05.2019 05:00 14,6 C 10,0 C 6,1 C 61 % 72 % 1003,0 hPa 0,0 l/m 9,0 km/h (2 Bft) N-NO 22 5,2 C 8,8 C 14,5 km/h (3 Bft)
19.05.2019 04:58 14,6 C 10,0 C 6,1 C 61 % 72 % 1003,0 hPa 0,0 l/m 8,9 km/h (2 Bft) N-NO 22 5,2 C 8,8 C 12,7 km/h (3 Bft)
19.05.2019 04:56 14,6 C 10,0 C 6,1 C 61 % 73 % 1003,0 hPa 0,0 l/m 8,4 km/h (2 Bft) N-NO 22 5,4 C 8,9 C 12,9 km/h (3 Bft)
19.05.2019 04:54 14,7 C 9,9 C 5,8 C 61 % 73 % 1003,0 hPa 0,0 l/m 8,2 km/h (2 Bft) N-NO 22 5,3 C 8,8 C 12,0 km/h (2 Bft)
19.05.2019 04:52 14,7 C 9,6 C 5,6 C 61 % 73 % 1003,2 hPa 0,0 l/m 7,6 km/h (2 Bft) N-NO 22 5,0 C 8,6 C 9,8 km/h (2 Bft)
19.05.2019 04:50 14,7 C 9,8 C 5,7 C 61 % 73 % 1003,2 hPa 0,0 l/m 7,4 km/h (2 Bft) N-NO 22 5,2 C 8,9 C 9,3 km/h (2 Bft)
19.05.2019 04:48 14,7 C 9,8 C 5,6 C 61 % 72 % 1003,2 hPa 0,0 l/m 7,1 km/h (2 Bft) N 360 5,0 C 9,0 C 9,7 km/h (2 Bft)
19.05.2019 04:46 14,7 C 10,0 C 5,7 C 61 % 73 % 1003,2 hPa 0,0 l/m 7,1 km/h (2 Bft) N-NO 22 5,4 C 9,2 C 9,1 km/h (2 Bft)
19.05.2019 04:44 14,7 C 9,9 C 5,6 C 61 % 73 % 1003,2 hPa 0,0 l/m 7,1 km/h (2 Bft) N-NO 22 5,3 C 9,1 C 10,2 km/h (2 Bft)
19.05.2019 04:42 14,7 C 9,8 C 5,5 C 61 % 73 % 1003,2 hPa 0,0 l/m 7,2 km/h (2 Bft) N-NO 22 5,2 C 8,9 C 9,8 km/h (2 Bft)
19.05.2019 04:40 14,7 C 9,6 C 5,3 C 61 % 73 % 1003,2 hPa 0,0 l/m 7,1 km/h (2 Bft) NO 45 5,0 C 8,7 C 9,1 km/h (2 Bft)
19.05.2019 04:38 14,7 C 9,5 C 5,4 C 61 % 73 % 1003,2 hPa 0,0 l/m 6,8 km/h (2 Bft) N-NO 22 4,9 C 8,7 C 7,3 km/h (2 Bft)
19.05.2019 04:36 14,7 C 9,6 C 5,5 C 61 % 73 % 1003,2 hPa 0,0 l/m 6,4 km/h (2 Bft) N-NO 22 5,0 C 8,9 C 8,9 km/h (2 Bft)
19.05.2019 04:34 14,7 C 9,7 C 5,4 C 61 % 73 % 1003,2 hPa 0,0 l/m 6,1 km/h (2 Bft) N-NO 22 5,1 C 9,1 C 9,8 km/h (2 Bft)
19.05.2019 04:32 14,7 C 9,4 C 4,7 C 61 % 73 % 1003,1 hPa 0,0 l/m 5,6 km/h (1 Bft) N-NO 22 4,8 C 8,9 C 9,3 km/h (2 Bft)
19.05.2019 04:30 14,7 C 9,3 C 4,5 C 61 % 73 % 1003,1 hPa 0,0 l/m 5,3 km/h (1 Bft) N-NO 22 4,7 C 8,9 C 7,0 km/h (2 Bft)
19.05.2019 04:28 14,7 C 9,1 C 4,3 C 61 % 73 % 1003,1 hPa 0,0 l/m 5,5 km/h (1 Bft) NO 45 4,5 C 8,6 C 5,8 km/h (2 Bft)
19.05.2019 04:26 14,6 C 9,1 C 4,5 C 61 % 73 % 1003,1 hPa 0,0 l/m 5,3 km/h (1 Bft) N-NO 22 4,5 C 8,6 C 7,3 km/h (2 Bft)
19.05.2019 04:24 14,7 C 9,3 C 4,4 C 61 % 72 % 1003,1 hPa 0,0 l/m 5,3 km/h (1 Bft) N-NO 22 4,5 C 8,9 C 7,1 km/h (2 Bft)
19.05.2019 04:22 14,7 C 9,6 C 4,5 C 61 % 72 % 1003,1 hPa 0,0 l/m 5,8 km/h (2 Bft) N-NO 22 4,8 C 9,1 C 8,1 km/h (2 Bft)
19.05.2019 04:20 14,6 C 9,6 C 4,8 C 61 % 72 % 1003,1 hPa 0,0 l/m 6,3 km/h (2 Bft) N-NO 22 4,8 C 8,9 C 5,4 km/h (1 Bft)
19.05.2019 04:18 14,6 C 9,5 C 5,0 C 61 % 72 % 1003,1 hPa 0,0 l/m 6,8 km/h (2 Bft) N-NO 22 4,7 C 8,7 C 8,5 km/h (2 Bft)
19.05.2019 04:16 14,7 C 9,5 C 5,3 C 61 % 71 % 1003,1 hPa 0,0 l/m 6,9 km/h (2 Bft) N-NO 22 4,5 C 8,7 C 5,4 km/h (1 Bft)
19.05.2019 04:14 14,6 C 9,9 C 5,8 C 61 % 71 % 1003,1 hPa 0,0 l/m 7,6 km/h (2 Bft) N-NO 22 4,9 C 9,0 C 7,0 km/h (2 Bft)
19.05.2019 04:12 14,6 C 10,1 C 5,7 C 61 % 71 % 1003,4 hPa 0,0 l/m 7,7 km/h (2 Bft) N-NO 22 5,1 C 10,1 C 10,8 km/h (2 Bft)
19.05.2019 04:10 14,6 C 9,8 C 5,6 C 61 % 71 % 1003,4 hPa 0,0 l/m 7,9 km/h (2 Bft) N-NO 22 4,8 C 8,8 C 10,2 km/h (2 Bft)
19.05.2019 04:08 14,6 C 10,1 C 5,6 C 61 % 71 % 1003,4 hPa 0,0 l/m 7,9 km/h (2 Bft) N-NO 22 5,1 C 10,1 C 11,0 km/h (2 Bft)
19.05.2019 04:06 14,7 C 10,1 C 5,6 C 61 % 71 % 1003,4 hPa 0,0 l/m 7,9 km/h (2 Bft) N-NO 22 5,1 C 10,1 C 8,9 km/h (2 Bft)
19.05.2019 04:04 14,7 C 10,1 C 5,8 C 61 % 71 % 1003,4 hPa 0,0 l/m 8,2 km/h (2 Bft) N-NO 22 5,1 C 10,1 C 10,4 km/h (2 Bft)
19.05.2019 04:02 14,7 C 10,1 C 5,7 C 61 % 71 % 1003,4 hPa 0,0 l/m 8,0 km/h (2 Bft) N-NO 22 5,1 C 10,1 C 9,5 km/h (2 Bft)
19.05.2019 04:00 14,6 C 10,2 C 5,7 C 61 % 71 % 1003,4 hPa 0,0 l/m 7,9 km/h (2 Bft) N-NO 22 5,2 C 10,2 C 10,4 km/h (2 Bft)
19.05.2019 03:58 14,7 C 10,1 C 5,6 C 61 % 71 % 1003,4 hPa 0,0 l/m 7,7 km/h (2 Bft) N 360 5,1 C 10,1 C 9,8 km/h (2 Bft)
19.05.2019 03:56 14,6 C 10,2 C 5,8 C 61 % 71 % 1003,4 hPa 0,0 l/m 7,7 km/h (2 Bft) N-NO 22 5,2 C 10,2 C 9,7 km/h (2 Bft)
19.05.2019 03:54 14,6 C 10,2 C 5,7 C 61 % 71 % 1003,4 hPa 0,0 l/m 7,6 km/h (2 Bft) N-NO 22 5,2 C 10,2 C 11,0 km/h (2 Bft)
19.05.2019 03:52 14,7 C 10,1 C 5,6 C 61 % 71 % 1003,4 hPa 0,0 l/m 7,4 km/h (2 Bft) N-NO 22 5,1 C 10,1 C 10,8 km/h (2 Bft)
19.05.2019 03:50 14,6 C 10,1 C 5,7 C 61 % 71 % 1003,4 hPa 0,0 l/m 7,9 km/h (2 Bft) N-NO 22 5,1 C 10,1 C 10,0 km/h (2 Bft)
19.05.2019 03:48 14,6 C 10,1 C 5,6 C 61 % 71 % 1003,4 hPa 0,0 l/m 8,0 km/h (2 Bft) N-NO 22 5,1 C 10,1 C 8,7 km/h (2 Bft)
19.05.2019 03:46 14,6 C 10,2 C 5,8 C 61 % 70 % 1003,4 hPa 0,0 l/m 8,2 km/h (2 Bft) N-NO 22 5,0 C 10,2 C 8,1 km/h (2 Bft)
19.05.2019 03:44 14,6 C 10,4 C 5,9 C 61 % 70 % 1003,4 hPa 0,0 l/m 8,5 km/h (2 Bft) S-SO 157 5,2 C 10,4 C 9,5 km/h (2 Bft)
19.05.2019 03:42 14,6 C 10,5 C 6,1 C 61 % 70 % 1003,4 hPa 0,0 l/m 8,5 km/h (2 Bft) N-NO 22 5,3 C 10,5 C 9,5 km/h (2 Bft)
19.05.2019 03:40 14,6 C 10,4 C 6,1 C 61 % 71 % 1003,4 hPa 0,0 l/m 8,7 km/h (2 Bft) NO 45 5,4 C 10,4 C 12,0 km/h (2 Bft)
19.05.2019 03:38 14,6 C 10,3 C 5,9 C 61 % 71 % 1003,4 hPa 0,0 l/m 8,7 km/h (2 Bft) N-NO 22 5,3 C 10,3 C 11,2 km/h (2 Bft)
19.05.2019 03:36 14,6 C 10,1 C 5,9 C 61 % 71 % 1003,4 hPa 0,0 l/m 8,9 km/h (2 Bft) NO 45 5,1 C 10,1 C 10,2 km/h (2 Bft)
19.05.2019 03:34 14,8 C 10,2 C 6,0 C 61 % 70 % 1003,4 hPa 0,0 l/m 8,9 km/h (2 Bft) NO 45 5,0 C 10,2 C 10,8 km/h (2 Bft)
19.05.2019 03:32 14,8 C 10,4 C 6,1 C 61 % 70 % 1003,4 hPa 0,0 l/m 9,0 km/h (2 Bft) N-NO 22 5,2 C 10,4 C 10,4 km/h (2 Bft)
19.05.2019 03:30 14,8 C 10,4 C 6,1 C 61 % 71 % 1003,4 hPa 0,0 l/m 8,9 km/h (2 Bft) N-NO 22 5,4 C 10,4 C 13,3 km/h (3 Bft)
19.05.2019 03:28 14,8 C 10,2 C 6,0 C 61 % 71 % 1003,4 hPa 0,0 l/m 8,7 km/h (2 Bft) NO 45 5,2 C 10,2 C 9,3 km/h (2 Bft)
19.05.2019 03:26 14,8 C 10,2 C 6,1 C 61 % 71 % 1003,4 hPa 0,0 l/m 8,5 km/h (2 Bft) N-NO 22 5,2 C 10,2 C 12,4 km/h (3 Bft)
19.05.2019 03:24 14,8 C 10,1 C 5,9 C 61 % 71 % 1003,4 hPa 0,0 l/m 8,0 km/h (2 Bft) N-NO 22 5,1 C 10,1 C 12,2 km/h (2 Bft)
19.05.2019 03:22 14,6 C 10,3 C 5,9 C 61 % 71 % 1003,4 hPa 0,0 l/m 7,7 km/h (2 Bft) N-NO 22 5,3 C 10,3 C 10,0 km/h (2 Bft)
19.05.2019 03:20 14,8 C 10,1 C 5,8 C 61 % 71 % 1003,4 hPa 0,0 l/m 7,9 km/h (2 Bft) N-NO 22 5,1 C 10,1 C 10,8 km/h (2 Bft)
19.05.2019 03:18 14,8 C 10,1 C 5,8 C 61 % 71 % 1003,4 hPa 0,0 l/m 7,9 km/h (2 Bft) N-NO 22 5,1 C 10,1 C 11,4 km/h (2 Bft)
19.05.2019 03:16 14,8 C 10,2 C 5,8 C 61 % 70 % 1003,4 hPa 0,0 l/m 7,7 km/h (2 Bft) N-NO 22 5,0 C 10,2 C 8,9 km/h (2 Bft)
19.05.2019 03:14 14,6 C 10,3 C 6,0 C 61 % 70 % 1003,4 hPa 0,0 l/m 7,9 km/h (2 Bft) N-NO 22 5,1 C 10,3 C 11,2 km/h (2 Bft)
19.05.2019 03:12 14,8 C 10,6 C 6,4 C 61 % 69 % 1003,4 hPa 0,0 l/m 8,2 km/h (2 Bft) N 360 5,2 C 10,6 C 8,9 km/h (2 Bft)
19.05.2019 03:10 14,8 C 10,6 C 6,4 C 61 % 69 % 1003,4 hPa 0,0 l/m 8,2 km/h (2 Bft) N 360 5,2 C 10,6 C 8,9 km/h (2 Bft)
19.05.2019 03:08 14,8 C 10,6 C 6,4 C 61 % 69 % 1003,4 hPa 0,0 l/m 8,2 km/h (2 Bft) N 360 5,2 C 10,6 C 8,9 km/h (2 Bft)
19.05.2019 03:06 14,8 C 10,6 C 6,4 C 61 % 69 % 1003,4 hPa 0,0 l/m 8,2 km/h (2 Bft) N 360 5,2 C 10,6 C 8,9 km/h (2 Bft)
19.05.2019 03:04 14,8 C 10,6 C 6,4 C 61 % 69 % 1003,4 hPa 0,0 l/m 8,2 km/h (2 Bft) N 360 5,2 C 10,6 C 8,9 km/h (2 Bft)
19.05.2019 03:02 14,8 C 10,6 C 6,4 C 61 % 69 % 1003,4 hPa 0,0 l/m 8,2 km/h (2 Bft) N 360 5,2 C 10,6 C 8,9 km/h (2 Bft)
19.05.2019 03:00 14,8 C 10,6 C 6,4 C 61 % 69 % 1003,4 hPa 0,0 l/m 8,0 km/h (2 Bft) N 360 5,2 C 10,6 C 11,2 km/h (2 Bft)
19.05.2019 02:58 14,8 C 10,7 C 6,4 C 61 % 69 % 1003,4 hPa 0,0 l/m 8,2 km/h (2 Bft) N-NO 22 5,2 C 10,7 C 9,8 km/h (2 Bft)
19.05.2019 02:56 14,8 C 10,7 C 6,4 C 61 % 69 % 1003,4 hPa 0,0 l/m 8,2 km/h (2 Bft) N 360 5,2 C 10,7 C 10,8 km/h (2 Bft)
19.05.2019 02:54 14,8 C 10,8 C 6,4 C 61 % 69 % 1003,4 hPa 0,0 l/m 8,4 km/h (2 Bft) N-NO 22 5,3 C 10,8 C 10,6 km/h (2 Bft)
19.05.2019 02:52 14,8 C 10,6 C 6,3 C 61 % 69 % 1003,4 hPa 0,0 l/m 8,0 km/h (2 Bft) N 360 5,2 C 10,6 C 9,5 km/h (2 Bft)
19.05.2019 02:50 14,8 C 10,7 C 6,4 C 61 % 69 % 1003,4 hPa 0,0 l/m 8,2 km/h (2 Bft) N-NO 22 5,2 C 10,7 C 11,0 km/h (2 Bft)
19.05.2019 02:48 14,8 C 10,8 C 6,4 C 61 % 69 % 1003,4 hPa 0,0 l/m 8,0 km/h (2 Bft) N-NO 22 5,3 C 10,8 C 13,1 km/h (3 Bft)
19.05.2019 02:46 14,8 C 10,8 C 6,3 C 61 % 69 % 1003,4 hPa 0,0 l/m 8,0 km/h (2 Bft) N-NO 22 5,3 C 10,8 C 12,2 km/h (2 Bft)
19.05.2019 02:44 14,8 C 10,7 C 6,1 C 61 % 69 % 1003,4 hPa 0,0 l/m 7,9 km/h (2 Bft) N 360 5,2 C 10,7 C 10,8 km/h (2 Bft)
19.05.2019 02:42 14,8 C 10,8 C 6,3 C 61 % 69 % 1003,4 hPa 0,0 l/m 7,7 km/h (2 Bft) N-NO 22 5,3 C 10,8 C 8,7 km/h (2 Bft)
19.05.2019 02:40 14,8 C 10,7 C 6,1 C 61 % 69 % 1003,4 hPa 0,0 l/m 7,9 km/h (2 Bft) N-NO 22 5,2 C 10,7 C 11,6 km/h (2 Bft)
19.05.2019 02:38 14,8 C 10,7 C 6,1 C 61 % 69 % 1003,4 hPa 0,0 l/m 8,0 km/h (2 Bft) N-NO 22 5,2 C 10,7 C 10,8 km/h (2 Bft)
19.05.2019 02:36 14,8 C 10,7 C 6,1 C 61 % 69 % 1003,4 hPa 0,0 l/m 8,0 km/h (2 Bft) N-NO 22 5,2 C 10,7 C 11,2 km/h (2 Bft)
19.05.2019 02:34 14,8 C 10,6 C 6,1 C 61 % 69 % 1003,4 hPa 0,0 l/m 8,0 km/h (2 Bft) N-NO 22 5,2 C 10,6 C 8,7 km/h (2 Bft)
19.05.2019 02:32 14,8 C 10,7 C 6,4 C 61 % 69 % 1003,5 hPa 0,0 l/m 8,2 km/h (2 Bft) NO 45 5,2 C 10,7 C 8,5 km/h (2 Bft)
19.05.2019 02:30 14,8 C 10,7 C 6,4 C 61 % 69 % 1003,5 hPa 0,0 l/m 8,4 km/h (2 Bft) N-NO 22 5,2 C 10,7 C 10,6 km/h (2 Bft)
19.05.2019 02:28 14,8 C 10,7 C 6,4 C 61 % 69 % 1003,5 hPa 0,0 l/m 8,4 km/h (2 Bft) N-NO 22 5,2 C 10,7 C 10,2 km/h (2 Bft)
19.05.2019 02:26 14,8 C 10,7 C 6,4 C 61 % 69 % 1003,5 hPa 0,0 l/m 8,4 km/h (2 Bft) N-NO 22 5,2 C 10,7 C 10,8 km/h (2 Bft)
19.05.2019 02:24 14,8 C 10,9 C 6,5 C 61 % 69 % 1003,5 hPa 0,0 l/m 8,5 km/h (2 Bft) N-NO 22 5,4 C 10,9 C 9,8 km/h (2 Bft)
19.05.2019 02:22 14,8 C 10,6 C 6,3 C 61 % 70 % 1003,5 hPa 0,0 l/m 8,7 km/h (2 Bft) N-NO 22 5,4 C 10,6 C 10,6 km/h (2 Bft)
19.05.2019 02:20 14,8 C 10,5 C 6,3 C 61 % 70 % 1003,5 hPa 0,0 l/m 9,0 km/h (2 Bft) N-NO 22 5,3 C 10,5 C 10,4 km/h (2 Bft)
19.05.2019 02:18 14,8 C 10,6 C 6,4 C 61 % 70 % 1003,5 hPa 0,0 l/m 9,2 km/h (2 Bft) N-NO 22 5,4 C 10,6 C 11,4 km/h (2 Bft)
19.05.2019 02:16 14,8 C 10,6 C 6,5 C 61 % 70 % 1003,5 hPa 0,0 l/m 9,2 km/h (2 Bft) N-NO 22 5,4 C 10,6 C 11,6 km/h (2 Bft)
19.05.2019 02:14 14,8 C 10,6 C 6,6 C 61 % 70 % 1003,5 hPa 0,0 l/m 9,0 km/h (2 Bft) N-NO 22 5,4 C 10,6 C 10,6 km/h (2 Bft)
19.05.2019 02:12 14,8 C 10,6 C 6,6 C 61 % 70 % 1003,5 hPa 0,0 l/m 9,0 km/h (2 Bft) N-NO 22 5,4 C 10,6 C 12,0 km/h (2 Bft)
19.05.2019 02:10 14,8 C 10,6 C 6,6 C 61 % 70 % 1003,5 hPa 0,0 l/m 8,9 km/h (2 Bft) NO 45 5,4 C 10,6 C 13,5 km/h (3 Bft)
19.05.2019 02:08 14,8 C 10,5 C 6,4 C 61 % 70 % 1003,5 hPa 0,0 l/m 8,9 km/h (2 Bft) NO 45 5,3 C 10,5 C 10,8 km/h (2 Bft)
19.05.2019 02:06 14,8 C 10,7 C 6,4 C 61 % 70 % 1003,5 hPa 0,0 l/m 8,9 km/h (2 Bft) N-NO 22 5,5 C 10,7 C 10,4 km/h (2 Bft)
19.05.2019 02:04 14,8 C 10,7 C 6,3 C 61 % 69 % 1003,5 hPa 0,0 l/m 8,9 km/h (2 Bft) N-NO 22 5,2 C 10,7 C 12,2 km/h (2 Bft)
19.05.2019 02:02 14,8 C 10,7 C 6,4 C 61 % 70 % 1003,5 hPa 0,0 l/m 9,2 km/h (2 Bft) N-NO 22 5,5 C 10,7 C 11,6 km/h (2 Bft)
19.05.2019 02:00 14,8 C 10,6 C 6,4 C 61 % 70 % 1003,5 hPa 0,0 l/m 9,3 km/h (2 Bft) N-NO 22 5,4 C 10,6 C 10,8 km/h (2 Bft)
19.05.2019 01:58 14,8 C 10,6 C 6,3 C 61 % 70 % 1003,5 hPa 0,0 l/m 9,5 km/h (2 Bft) NO 45 5,4 C 10,6 C 12,6 km/h (3 Bft)
19.05.2019 01:56 14,8 C 10,6 C 6,4 C 61 % 70 % 1003,5 hPa 0,0 l/m 9,3 km/h (2 Bft) N-NO 22 5,4 C 10,6 C 12,0 km/h (2 Bft)
19.05.2019 01:54 14,8 C 10,5 C 6,5 C 61 % 70 % 1003,5 hPa 0,0 l/m 9,2 km/h (2 Bft) NO 45 5,3 C 10,5 C 11,8 km/h (2 Bft)
19.05.2019 01:52 14,8 C 10,6 C 6,6 C 61 % 70 % 1003,5 hPa 0,0 l/m 8,9 km/h (2 Bft) N-NO 22 5,4 C 10,6 C 13,1 km/h (3 Bft)
19.05.2019 01:50 14,8 C 10,5 C 6,5 C 61 % 70 % 1003,5 hPa 0,0 l/m 8,9 km/h (2 Bft) N-NO 22 5,3 C 10,5 C 12,9 km/h (3 Bft)
19.05.2019 01:48 14,8 C 10,6 C 6,4 C 61 % 69 % 1003,5 hPa 0,0 l/m 8,9 km/h (2 Bft) NO 45 5,2 C 10,6 C 10,8 km/h (2 Bft)
19.05.2019 01:46 14,8 C 10,7 C 6,5 C 61 % 69 % 1003,5 hPa 0,0 l/m 8,7 km/h (2 Bft) NO 45 5,2 C 10,7 C 10,4 km/h (2 Bft)
19.05.2019 01:44 14,8 C 10,8 C 6,7 C 61 % 68 % 1003,5 hPa 0,0 l/m 8,9 km/h (2 Bft) NO 45 5,1 C 10,8 C 9,7 km/h (2 Bft)
19.05.2019 01:42 14,8 C 11,2 C 6,9 C 61 % 68 % 1003,5 hPa 0,0 l/m 9,0 km/h (2 Bft) NO 45 5,5 C 11,2 C 10,0 km/h (2 Bft)
19.05.2019 01:40 14,8 C 11,0 C 6,7 C 61 % 68 % 1003,5 hPa 0,0 l/m 9,2 km/h (2 Bft) NO 45 5,3 C 11,0 C 12,6 km/h (3 Bft)
19.05.2019 01:38 14,8 C 11,1 C 6,7 C 61 % 68 % 1003,5 hPa 0,0 l/m 8,9 km/h (2 Bft) NO 45 5,4 C 11,1 C 13,5 km/h (3 Bft)
19.05.2019 01:36 14,8 C 11,1 C 6,7 C 61 % 67 % 1003,5 hPa 0,0 l/m 8,9 km/h (2 Bft) N-NO 22 5,2 C 11,1 C 11,4 km/h (2 Bft)
19.05.2019 01:34 14,8 C 11,4 C 6,9 C 61 % 67 % 1003,5 hPa 0,0 l/m 8,7 km/h (2 Bft) N-NO 22 5,5 C 11,4 C 10,4 km/h (2 Bft)
19.05.2019 01:32 14,8 C 11,5 C 7,0 C 61 % 67 % 1003,6 hPa 0,0 l/m 8,7 km/h (2 Bft) N-NO 22 5,6 C 11,5 C 14,5 km/h (3 Bft)
19.05.2019 01:30 14,8 C 11,3 C 6,8 C 61 % 67 % 1003,6 hPa 0,0 l/m 8,2 km/h (2 Bft) N-NO 22 5,4 C 11,3 C 11,4 km/h (2 Bft)
19.05.2019 01:28 14,8 C 11,1 C 6,8 C 61 % 68 % 1003,6 hPa 0,0 l/m 8,0 km/h (2 Bft) N 360 5,4 C 11,1 C 11,0 km/h (2 Bft)
19.05.2019 01:26 14,8 C 11,0 C 6,7 C 61 % 67 % 1003,6 hPa 0,0 l/m 7,9 km/h (2 Bft) N-NO 22 5,1 C 11,0 C 10,8 km/h (2 Bft)
19.05.2019 01:24 14,8 C 11,2 C 6,8 C 61 % 67 % 1003,6 hPa 0,0 l/m 7,7 km/h (2 Bft) N-NO 22 5,3 C 11,2 C 10,6 km/h (2 Bft)
19.05.2019 01:22 14,8 C 11,5 C 6,8 C 61 % 66 % 1003,6 hPa 0,0 l/m 7,7 km/h (2 Bft) N-NO 22 5,4 C 11,5 C 11,2 km/h (2 Bft)
19.05.2019 01:20 14,8 C 11,5 C 6,9 C 61 % 66 % 1003,6 hPa 0,0 l/m 7,7 km/h (2 Bft) N 360 5,4 C 11,5 C 10,0 km/h (2 Bft)
19.05.2019 01:18 14,8 C 11,6 C 7,0 C 61 % 66 % 1003,6 hPa 0,0 l/m 8,0 km/h (2 Bft) N-NO 22 5,5 C 11,6 C 10,2 km/h (2 Bft)
19.05.2019 01:16 14,8 C 11,4 C 7,0 C 61 % 66 % 1003,6 hPa 0,0 l/m 8,2 km/h (2 Bft) N-NO 22 5,3 C 11,4 C 11,6 km/h (2 Bft)
19.05.2019 01:14 14,8 C 11,5 C 7,1 C 61 % 66 % 1003,6 hPa 0,0 l/m 8,0 km/h (2 Bft) N-NO 22 5,4 C 11,5 C 10,6 km/h (2 Bft)
19.05.2019 01:12 14,8 C 11,6 C 7,2 C 61 % 65 % 1003,7 hPa 0,0 l/m 8,2 km/h (2 Bft) N-NO 22 5,2 C 11,6 C 10,6 km/h (2 Bft)
19.05.2019 01:10 14,8 C 11,6 C 7,3 C 61 % 65 % 1003,7 hPa 0,0 l/m 8,2 km/h (2 Bft) NO 45 5,2 C 11,6 C 11,4 km/h (2 Bft)
19.05.2019 01:08 14,8 C 11,7 C 7,2 C 61 % 65 % 1003,7 hPa 0,0 l/m 7,9 km/h (2 Bft) N-NO 22 5,3 C 11,7 C 12,9 km/h (3 Bft)
19.05.2019 01:06 14,8 C 11,8 C 7,2 C 61 % 64 % 1003,7 hPa 0,0 l/m 7,6 km/h (2 Bft) NO 45 5,2 C 11,8 C 9,7 km/h (2 Bft)
19.05.2019 01:04 14,8 C 11,9 C 7,4 C 60 % 64 % 1003,7 hPa 0,0 l/m 7,6 km/h (2 Bft) N-NO 22 5,3 C 11,9 C 11,6 km/h (2 Bft)
19.05.2019 01:02 14,8 C 12,0 C 7,4 C 60 % 63 % 1003,7 hPa 0,0 l/m 7,4 km/h (2 Bft) NO 45 5,2 C 12,0 C 11,8 km/h (2 Bft)
19.05.2019 01:00 14,8 C 12,0 C 7,3 C 61 % 64 % 1003,7 hPa 0,0 l/m 7,2 km/h (2 Bft) N-NO 22 5,4 C 12,0 C 7,9 km/h (2 Bft)
19.05.2019 00:58 14,8 C 11,9 C 7,2 C 61 % 64 % 1003,7 hPa 0,0 l/m 7,2 km/h (2 Bft) N-NO 22 5,3 C 11,9 C 10,0 km/h (2 Bft)
19.05.2019 00:56 14,8 C 11,8 C 7,3 C 60 % 64 % 1003,7 hPa 0,0 l/m 7,4 km/h (2 Bft) N-NO 22 5,2 C 11,8 C 9,5 km/h (2 Bft)
19.05.2019 00:54 14,8 C 11,8 C 7,4 C 60 % 63 % 1003,7 hPa 0,0 l/m 7,9 km/h (2 Bft) N-NO 22 5,0 C 11,8 C 9,5 km/h (2 Bft)
19.05.2019 00:52 14,9 C 12,2 C 7,7 C 60 % 63 % 1004,1 hPa 0,0 l/m 7,7 km/h (2 Bft) N-NO 22 5,4 C 12,2 C 8,1 km/h (2 Bft)
19.05.2019 00:50 14,9 C 12,3 C 7,8 C 60 % 63 % 1004,1 hPa 0,0 l/m 8,0 km/h (2 Bft) N-NO 22 5,5 C 12,3 C 11,6 km/h (2 Bft)
19.05.2019 00:48 14,9 C 12,4 C 7,9 C 60 % 63 % 1004,1 hPa 0,0 l/m 8,2 km/h (2 Bft) NO 45 5,6 C 12,4 C 9,7 km/h (2 Bft)
19.05.2019 00:46 14,9 C 12,3 C 7,9 C 60 % 63 % 1004,1 hPa 0,0 l/m 8,0 km/h (2 Bft) NO 45 5,5 C 12,3 C 11,0 km/h (2 Bft)
19.05.2019 00:44 14,9 C 12,2 C 7,9 C 60 % 63 % 1004,1 hPa 0,0 l/m 7,9 km/h (2 Bft) NO 45 5,4 C 12,2 C 11,6 km/h (2 Bft)
19.05.2019 00:42 14,9 C 12,3 C 8,0 C 60 % 63 % 1004,1 hPa 0,0 l/m 8,0 km/h (2 Bft) NO 45 5,5 C 12,3 C 10,8 km/h (2 Bft)
19.05.2019 00:40 14,9 C 12,3 C 8,0 C 60 % 63 % 1004,1 hPa 0,0 l/m 8,0 km/h (2 Bft) N-NO 22 5,5 C 12,3 C 9,7 km/h (2 Bft)
19.05.2019 00:38 14,9 C 12,6 C 8,2 C 60 % 61 % 1004,1 hPa 0,0 l/m 7,9 km/h (2 Bft) NO 45 5,3 C 12,6 C 10,0 km/h (2 Bft)
19.05.2019 00:36 14,9 C 12,8 C 8,4 C 60 % 61 % 1004,1 hPa 0,0 l/m 7,9 km/h (2 Bft) N-NO 22 5,5 C 12,8 C 13,1 km/h (3 Bft)
19.05.2019 00:34 14,9 C 13,2 C 8,6 C 60 % 60 % 1004,1 hPa 0,0 l/m 7,9 km/h (2 Bft) N-NO 22 5,6 C 13,2 C 10,0 km/h (2 Bft)
19.05.2019 00:32 14,8 C 13,2 C 8,8 C 60 % 60 % 1004,1 hPa 0,0 l/m 7,7 km/h (2 Bft) O-NO 67 5,6 C 13,2 C 13,1 km/h (3 Bft)
19.05.2019 00:30 14,9 C 13,4 C 8,9 C 60 % 59 % 1004,1 hPa 0,0 l/m 7,9 km/h (2 Bft) NO 45 5,6 C 13,4 C 10,8 km/h (2 Bft)
19.05.2019 00:28 14,9 C 13,3 C 8,9 C 60 % 60 % 1004,1 hPa 0,0 l/m 7,9 km/h (2 Bft) NO 45 5,7 C 13,3 C 7,1 km/h (2 Bft)
19.05.2019 00:26 14,9 C 13,2 C 9,1 C 60 % 60 % 1004,1 hPa 0,0 l/m 8,2 km/h (2 Bft) O-NO 67 5,6 C 13,2 C 14,9 km/h (3 Bft)
19.05.2019 00:24 14,8 C 13,3 C 9,2 C 60 % 59 % 1004,1 hPa 0,0 l/m 8,2 km/h (2 Bft) O-NO 67 5,5 C 13,3 C 10,6 km/h (2 Bft)
19.05.2019 00:22 14,8 C 13,4 C 9,3 C 60 % 59 % 1004,1 hPa 0,0 l/m 8,5 km/h (2 Bft) O-NO 67 5,6 C 13,4 C 9,7 km/h (2 Bft)
19.05.2019 00:20 14,8 C 13,3 C 9,3 C 60 % 59 % 1004,1 hPa 0,0 l/m 8,9 km/h (2 Bft) O-NO 67 5,5 C 13,3 C 15,1 km/h (3 Bft)
19.05.2019 00:18 14,8 C 13,4 C 9,3 C 60 % 59 % 1004,1 hPa 0,0 l/m 8,7 km/h (2 Bft) O-SO 112 5,6 C 13,4 C 10,4 km/h (2 Bft)
19.05.2019 00:16 14,8 C 13,5 C 9,4 C 60 % 59 % 1004,1 hPa 0,0 l/m 9,2 km/h (2 Bft) O-NO 67 5,6 C 13,5 C 11,0 km/h (2 Bft)
19.05.2019 00:14 14,8 C 13,5 C 9,5 C 60 % 59 % 1004,1 hPa 0,0 l/m 9,3 km/h (2 Bft) O-NO 67 5,6 C 13,5 C 11,6 km/h (2 Bft)
19.05.2019 00:12 14,8 C 13,6 C 9,6 C 60 % 59 % 1004,2 hPa 0,0 l/m 9,5 km/h (2 Bft) O-SO 112 5,7 C 13,6 C 15,4 km/h (3 Bft)
19.05.2019 00:10 14,8 C 13,6 C 9,6 C 60 % 59 % 1004,2 hPa 0,0 l/m 9,5 km/h (2 Bft) O-SO 112 5,7 C 13,6 C 15,4 km/h (3 Bft)
19.05.2019 00:08 14,8 C 13,6 C 9,6 C 60 % 59 % 1004,2 hPa 0,0 l/m 9,5 km/h (2 Bft) O-SO 112 5,7 C 13,6 C 15,4 km/h (3 Bft)
19.05.2019 00:06 14,8 C 13,6 C 9,6 C 60 % 59 % 1004,2 hPa 0,0 l/m 9,5 km/h (2 Bft) O-SO 112 5,7 C 13,6 C 15,4 km/h (3 Bft)
19.05.2019 00:04 14,8 C 13,6 C 9,6 C 60 % 59 % 1004,2 hPa 0,0 l/m 9,5 km/h (2 Bft) O-SO 112 5,7 C 13,6 C 15,4 km/h (3 Bft)
19.05.2019 00:02 14,8 C 13,6 C 9,6 C 60 % 59 % 1004,2 hPa 0,0 l/m 9,5 km/h (2 Bft) O-SO 112 5,7 C 13,6 C 15,4 km/h (3 Bft)
19.05.2019 00:00 14,8 C 13,6 C 9,6 C 60 % 59 % 1004,2 hPa 0,0 l/m 9,5 km/h (2 Bft) NO 45 5,7 C 13,6 C 12,6 km/h (3 Bft)
_ Min-Zeit 03:14 04:26 04:28 10:46 14:12 18:54 - 08:32 - - 04:16 05:16 08:28
Minimum _ 14,6 C 9,1 C 4,3 C 57 % 40 % 1002,2 hPa - 2,9 km/h (1 Bft) - - 4,5 C 8,4 C 0,0 km/h (0 Bft)
_ Max-Zeit 12:32 16:14 12:48 06:24 04:26 10:54 00:00 12:44 - - 14:58 16:14 12:36
Maximum _ 18,0 C 21,2 C 40,3 C 62 % 73 % 1005,2 hPa 0,0 l/m 16,6 km/h
NO (3 Bft)
- - 10,2 C 21,2 C 36,7 km/h
O-NO (5 Bft)
Durchschnitt _ 16,3 C 15,4 C 19,0 C 59 % 58 % 1003,6 hPa #0,0 l/m 8,2 km/h (2 Bft) N-NO - 6,9 C 15,3 C 11,4 km/h (2 Bft)